GFSSGP_850_rhum_102.txt.gz
RH
11 9 21 25 29 34 32 24 17 15 12 7 9 11 11 16 27 35 27 30 34 17 21 21 16 13 14 15 17 28 42 51 57 61 61 59 59 57 52 49 51 56 63 68 70 70 69 71 70
9 12 25 31 35 31 28 22 18 14 11 9 9 8 10 29 33 30 36 35 21 12 19 14 14 15 14 13 15 21 32 42 51 59 62 63 63 61 58 53 52 60 67 68 70 69 68 69 61
8 26 32 44 42 33 26 17 13 11 9 7 9 8 8 19 30 29 36 34 14 15 14 14 15 13 13 12 14 17 25 34 46 56 63 66 66 65 62 57 54 59 66 68 72 65 64 65 59
8 29 33 44 40 28 20 13 11 11 9 8 8 8 15 20 25 30 34 26 14 14 14 16 14 14 13 13 13 15 24 32 43 51 60 66 68 70 68 63 57 60 68 67 68 63 69 61 60
19 33 49 48 42 28 17 14 13 13 11 9 8 9 18 32 30 28 24 14 12 14 15 14 14 15 14 16 15 15 23 29 42 50 56 63 68 71 72 68 62 64 68 67 63 64 67 62 64
26 29 48 48 33 23 19 14 13 12 11 10 10 9 26 24 26 29 22 12 13 14 16 14 15 15 15 16 17 16 19 28 36 45 51 59 67 71 74 74 72 66 70 69 65 68 66 62 68
32 40 43 37 32 26 20 15 15 15 13 12 8 12 32 40 30 32 29 15 15 15 17 15 16 16 15 16 17 18 16 24 34 42 48 56 67 74 76 77 76 70 72 69 66 68 69 64 72
34 45 44 38 34 34 20 17 16 17 15 12 8 12 27 41 39 39 37 31 18 16 17 17 16 17 16 17 17 19 18 21 30 40 46 57 70 76 80 83 81 79 79 75 79 78 77 70 72
38 52 52 47 40 33 24 23 19 16 15 14 12 8 8 27 43 44 44 42 34 34 31 25 19 18 19 17 18 20 21 20 25 34 43 57 71 78 84 87 86 84 80 87 83 79 75 66 72
32 50 50 37 32 31 25 24 23 19 18 15 15 20 30 34 42 45 47 49 49 38 36 39 35 31 20 20 20 20 22 20 25 25 37 52 68 76 82 88 88 88 86 88 84 81 75 68 59
29 37 33 29 25 24 25 26 24 22 21 16 17 16 19 36 43 42 45 44 44 44 42 39 43 42 30 22 22 22 23 23 24 25 28 47 55 71 82 87 91 92 90 86 88 85 77 66 65
37 29 26 24 22 21 22 19 21 21 20 16 15 16 15 15 26 26 41 47 46 46 45 39 43 46 43 29 25 24 24 24 22 25 24 42 48 58 69 78 82 88 85 86 84 87 80 72 72
20 18 17 17 19 20 20 21 21 19 16 16 16 16 16 15 15 16 30 37 39 46 43 34 42 44 50 48 28 27 26 27 24 26 26 34 39 46 56 71 75 80 83 85 87 97 93 76 74
22 20 20 18 16 15 17 17 16 15 13 15 13 13 12 13 14 14 14 18 52 43 36 25 33 43 54 58 43 27 27 30 31 28 28 28 35 39 46 61 68 72 78 84 87 90 93 79 77
19 26 25 24 23 20 16 20 18 14 12 12 12 12 12 12 14 13 14 14 15 33 31 22 19 29 46 58 56 39 30 34 36 34 32 28 33 36 40 54 64 67 74 86 89 95 95 86 82
24 29 39 25 24 22 19 28 18 15 13 14 13 12 11 13 15 14 12 12 13 14 14 16 21 21 26 47 58 57 39 43 41 49 46 34 38 40 45 53 63 74 80 90 100 99 99 96 87
33 31 32 29 24 26 25 28 20 16 15 16 16 15 15 15 12 13 14 14 15 14 14 13 14 16 19 34 45 68 55 48 47 56 70 54 54 51 52 51 63 80 86 93 100 96 98 97 96
33 46 41 40 24 27 30 28 22 18 17 14 13 11 12 16 13 12 13 14 13 14 14 14 13 14 14 16 36 66 66 61 61 56 67 79 70 70 69 67 70 86 90 97 99 98 97 100 98
26 24 25 21 18 22 21 19 19 17 15 16 14 14 12 11 11 11 12 15 14 14 14 14 14 15 16 20 29 64 68 72 72 67 68 92 89 80 81 80 83 94 97 99 98 98 98 99 100
30 30 30 24 20 21 20 20 17 18 16 14 14 12 11 10 9 10 10 9 10 10 12 15 15 15 17 17 19 48 51 66 71 77 82 97 99 100 98 99 100 99 98 98 96 99 98 100 97
31 36 35 33 25 22 22 24 20 18 16 14 13 12 11 10 10 9 9 9 9 8 8 10 13 15 15 18 27 50 52 55 69 88 83 97 99 100 98 98 99 99 99 94 90 91 99 96 96
33 25 27 26 25 39 29 40 22 22 20 17 15 13 12 11 11 11 11 12 22 26 20 11 12 16 18 23 29 42 46 50 46 68 85 94 98 98 98 99 99 99 97 95 90 88 92 100 99
21 30 30 27 32 64 38 48 29 24 23 20 17 44 47 32 34 59 56 49 39 36 34 22 17 21 18 20 28 50 51 44 50 68 76 86 88 96 95 97 98 97 96 93 93 90 97 100 100
32 37 34 36 68 77 54 57 39 30 26 22 67 80 89 92 89 81 72 52 43 39 40 35 33 26 28 23 38 51 47 52 57 71 79 86 88 92 92 96 98 98 95 92 90 93 90 94 100
40 47 67 87 86 71 40 46 36 40 32 26 72 87 92 100 99 100 81 76 65 48 40 38 35 44 43 44 43 54 52 49 48 59 66 81 92 95 97 99 98 98 98 99 98 91 100 91 97
44 70 70 81 81 64 41 53 55 80 74 81 87 94 93 98 100 100 100 100 97 85 74 63 75 45 48 43 47 54 51 52 64 69 68 71 88 91 96 100 98 98 98 98 94 94 94 90 97
64 75 55 71 59 70 73 50 61 70 81 80 88 90 93 93 99 98 100 100 99 100 100 100 99 100 66 48 48 50 57 67 73 73 71 76 86 94 89 85 93 99 98 98 96 99 100 98 98
69 49 82 89 84 80 73 75 100 97 94 93 93 94 92 95 95 95 99 100 100 100 100 100 97 92 65 49 51 53 60 68 74 84 85 85 87 89 94 95 98 98 99 99 98 99 99 100 97
82 92 75 74 87 75 88 98 100 100 98 98 92 88 91 95 100 99 95 98 100 100 100 100 96 82 76 68 64 63 68 73 89 100 84 85 87 92 99 100 100 99 100 98 99 100 100 99 99
63 84 74 88 63 77 94 98 100 100 100 93 82 85 89 92 99 99 95 95 97 98 98 100 99 100 89 81 68 66 68 80 91 88 90 89 95 97 100 92 100 100 99 100 100 98 100 100 100

GFSSGP_850_rhum_105.txt.gz
RH
12 11 19 24 30 35 30 26 18 15 12 8 9 11 13 14 27 30 36 25 21 22 33 41 39 35 29 27 26 26 32 43 52 54 55 56 55 51 47 52 55 60 63 65 69 76 77 76 70
11 9 22 30 32 32 24 26 20 15 11 8 8 8 11 21 34 34 35 32 19 21 28 28 23 18 18 25 28 25 30 36 50 57 58 58 59 56 51 50 51 59 66 69 70 72 68 67 64
11 17 27 45 48 28 16 18 18 11 10 10 8 9 9 23 26 23 25 29 23 24 24 21 15 14 17 22 24 21 26 30 40 54 61 62 62 61 57 52 53 60 66 71 71 69 64 65 55
8 29 33 49 49 36 21 16 12 14 11 10 9 12 9 17 21 23 28 30 20 21 20 14 14 16 15 16 18 20 23 28 36 47 59 64 66 65 62 57 54 60 67 70 73 65 64 58 56
13 33 47 56 49 36 21 18 17 17 14 11 12 12 10 18 22 26 30 30 16 17 14 14 15 13 13 14 16 18 22 26 34 45 54 64 67 68 67 64 58 63 68 67 69 64 63 56 56
26 33 55 51 39 27 25 18 17 16 15 14 13 12 10 19 27 30 35 24 16 13 13 15 14 14 14 15 17 18 21 25 35 45 49 59 67 70 71 71 67 61 69 70 66 64 62 59 56
31 44 47 42 36 30 25 18 19 17 17 18 14 15 16 25 31 30 32 21 17 14 14 15 15 15 15 18 20 19 21 23 34 42 46 53 62 69 74 74 72 64 72 70 65 68 65 62 63
33 46 50 37 34 32 22 20 20 20 21 16 16 15 28 34 35 34 33 27 22 15 15 14 15 16 16 18 19 21 21 24 30 44 45 47 56 66 76 77 77 77 75 76 69 71 72 67 72
41 56 66 42 39 35 24 28 24 23 20 19 18 15 26 30 54 40 37 26 25 17 17 16 16 17 16 16 17 20 23 29 29 42 47 49 55 64 74 80 81 82 80 80 73 75 74 72 75
37 65 50 40 34 38 32 30 28 25 24 23 21 17 15 36 56 60 39 26 19 17 18 18 18 18 18 17 17 18 21 26 32 35 47 49 56 64 70 80 85 84 83 83 77 77 76 70 68
33 46 39 35 32 31 29 28 26 27 29 23 20 18 16 15 40 63 64 41 32 23 20 20 20 20 20 20 18 18 19 23 31 35 39 48 56 66 73 80 86 85 85 83 85 84 82 70 62
35 29 32 31 27 25 26 22 23 22 22 20 19 18 16 15 15 16 52 57 53 38 35 38 43 42 38 26 21 19 19 22 25 31 32 38 55 63 69 78 82 84 83 82 81 84 78 77 68
26 23 19 18 16 18 19 22 23 20 16 15 17 16 17 16 15 15 15 18 55 60 48 40 44 47 48 45 35 23 21 20 22 27 29 32 50 53 55 72 78 80 81 82 81 82 82 84 72
24 25 24 22 23 22 19 19 18 17 16 15 14 16 16 14 13 13 14 14 15 46 57 52 46 46 50 47 48 45 27 22 21 26 29 32 34 50 49 59 66 74 78 79 81 80 83 80 72
17 25 20 20 24 25 20 25 24 18 16 15 14 13 13 12 13 12 12 11 11 14 21 59 52 42 49 48 48 52 52 28 23 24 31 35 37 44 50 53 59 65 73 80 86 90 96 94 89
20 21 30 26 24 21 22 34 23 19 19 18 16 15 14 13 13 12 12 12 12 13 14 15 50 53 49 48 44 51 53 48 28 27 30 35 42 42 56 57 55 60 69 79 89 93 99 94 84
29 29 32 26 23 26 27 35 24 21 21 21 20 19 17 15 14 14 13 11 12 13 14 14 14 33 56 54 51 42 49 51 46 36 38 37 41 45 61 63 61 67 73 80 91 98 98 90 84
28 40 39 38 30 19 21 23 17 16 15 15 17 18 17 16 14 13 12 11 12 13 13 14 15 15 29 52 42 48 50 52 60 48 50 48 42 44 60 72 73 79 85 88 98 99 96 93 91
38 43 42 34 27 26 27 26 22 18 17 16 16 17 16 13 11 11 11 11 11 12 13 16 15 15 15 42 34 47 48 38 49 63 58 60 62 55 60 74 85 91 94 90 95 98 97 92 100
40 43 42 33 27 29 30 30 24 21 18 16 16 16 15 13 12 12 11 10 9 9 9 12 16 16 16 16 16 24 25 29 31 58 66 61 73 73 71 74 86 96 100 100 99 95 93 92 97
36 40 39 39 28 26 28 30 25 21 19 16 15 16 18 47 43 22 14 11 10 9 9 10 12 14 16 17 23 27 48 46 61 67 62 63 67 81 89 91 97 99 99 99 97 94 93 89 93
20 19 26 28 38 46 34 49 33 30 25 22 18 59 89 85 70 62 45 22 20 14 12 14 10 11 17 21 20 24 22 30 39 49 46 58 61 83 95 99 98 99 99 98 97 94 94 87 86
17 20 34 43 48 45 39 51 41 31 30 26 42 84 91 98 99 99 100 89 61 45 38 30 15 12 12 17 23 21 33 28 25 51 49 46 56 74 88 97 98 98 96 96 98 91 88 88 89
34 41 37 41 50 65 40 51 45 38 32 33 87 93 95 98 98 99 100 100 93 69 50 32 24 15 13 15 23 31 26 34 42 56 53 49 57 76 86 96 95 92 92 93 93 92 92 92 93
44 55 81 83 71 61 35 44 40 79 80 86 91 97 98 90 96 98 100 100 100 85 54 44 32 43 37 27 21 29 50 43 39 45 52 55 57 78 87 88 92 90 90 93 94 94 95 95 95
48 58 76 69 73 61 50 64 92 86 82 85 89 93 99 99 85 99 100 99 100 100 98 74 76 96 98 79 80 52 48 51 56 55 60 48 53 74 91 88 94 94 93 95 96 96 99 99 95
66 68 47 66 59 80 60 44 74 92 95 87 96 97 99 100 84 95 98 100 100 100 100 100 99 100 99 100 100 89 62 51 53 52 54 60 73 78 83 88 94 98 99 99 95 89 97 100 95
58 47 88 90 95 91 56 70 97 98 97 98 98 98 99 100 92 95 99 100 100 100 100 100 100 99 98 100 100 93 55 51 54 51 60 75 77 83 88 94 99 94 95 98 91 91 90 89 98
77 88 82 78 76 86 78 98 100 99 100 99 95 93 99 100 98 100 100 100 99 100 100 100 99 100 100 100 99 87 59 58 56 63 68 78 84 85 87 92 92 95 93 91 93 94 94 95 99
44 62 100 94 87 74 81 99 100 100 98 97 83 83 91 98 99 100 100 100 100 100 100 100 100 100 100 93 66 70 64 63 66 65 75 85 90 87 89 94 98 98 98 96 96 97 100 99 99

GFSSGP_850_rhum_108.txt.gz
RH
14 13 16 23 26 33 27 21 21 15 13 10 10 11 12 11 20 31 26 28 29 19 33 42 44 48 48 42 37 35 34 36 38 39 44 50 53 56 60 65 69 73 65 64 63 73 80 75 68
17 12 25 27 27 23 15 25 21 18 11 10 9 9 11 16 22 30 28 34 20 19 30 34 40 43 42 38 35 40 40 40 44 47 51 55 54 52 49 54 61 60 63 66 66 73 73 68 66
14 13 23 43 41 19 15 13 15 13 10 11 10 10 10 13 23 27 27 21 17 18 23 30 35 35 35 31 32 40 43 42 43 47 53 56 58 56 49 51 55 59 66 66 67 71 65 63 58
12 27 29 43 46 33 14 14 15 16 13 13 12 15 12 11 12 28 21 19 16 21 26 30 29 27 30 28 29 37 40 40 41 46 52 57 61 60 56 52 55 60 64 66 66 69 63 60 51
14 30 43 55 48 39 27 20 17 21 17 14 15 15 14 10 13 18 29 24 13 18 25 26 21 19 25 25 27 34 38 39 39 46 52 58 61 63 61 56 56 60 64 64 67 64 60 56 50
24 35 50 47 41 31 27 22 19 18 17 17 17 16 14 16 32 43 34 31 22 19 23 21 18 22 25 23 25 31 37 41 42 45 53 58 62 64 66 65 60 59 63 67 66 60 62 54 53
29 44 44 43 37 31 26 20 21 18 20 21 17 17 16 16 25 42 44 36 26 23 22 18 20 21 20 19 20 25 33 39 44 46 52 59 62 66 68 68 66 65 68 66 64 62 62 55 53
27 41 49 39 34 32 23 20 19 22 24 18 19 19 21 17 26 33 47 46 28 24 20 20 21 20 18 19 21 23 31 39 45 47 52 61 62 67 68 69 72 71 71 69 61 66 64 57 54
42 52 65 38 35 31 26 33 28 28 26 25 22 23 21 17 17 56 53 56 33 26 20 21 20 19 20 21 25 27 29 34 42 48 48 61 64 66 70 71 74 75 72 71 68 68 68 62 56
42 75 55 40 32 35 35 35 31 28 27 26 26 22 18 19 17 42 59 48 41 31 22 21 19 18 18 20 24 28 31 30 33 39 43 48 62 64 68 73 77 77 76 73 72 72 73 68 60
38 51 44 38 35 34 34 31 29 29 31 26 24 18 16 17 18 16 59 59 48 41 37 36 22 18 19 20 21 24 30 31 28 33 38 41 54 70 73 78 81 81 82 78 79 76 75 69 64
39 34 33 31 22 25 29 24 26 24 23 18 16 16 16 14 16 17 15 42 67 50 39 35 34 27 21 21 22 22 23 27 26 26 33 39 49 63 76 80 79 80 82 80 79 78 76 75 68
31 28 22 20 19 21 20 22 23 21 19 17 17 16 15 14 14 17 16 15 17 51 53 43 38 28 27 24 25 23 21 21 24 27 27 33 39 51 68 82 82 79 81 78 80 81 81 81 77
23 20 22 19 18 20 24 23 22 20 19 19 18 16 15 14 13 14 15 14 14 14 16 31 60 52 38 35 32 32 25 21 21 24 26 25 30 38 61 76 81 80 81 76 81 81 84 82 79
17 22 20 20 24 26 24 28 27 21 21 20 18 18 18 18 17 14 13 13 13 12 11 12 28 54 61 63 58 52 45 34 25 22 24 26 26 30 46 64 79 79 81 83 85 88 91 90 91
25 22 25 24 20 17 23 25 21 20 18 17 16 13 11 12 15 14 14 15 15 13 11 12 13 16 34 56 58 56 57 51 44 33 24 28 29 30 36 59 64 78 81 86 90 90 93 92 92
35 31 31 26 27 23 25 30 25 20 18 19 19 18 17 17 12 12 12 13 14 14 12 11 12 14 14 22 53 54 51 52 55 55 35 28 32 32 34 52 68 72 79 84 90 93 93 95 99
30 32 37 43 32 28 32 31 23 21 21 21 20 20 18 17 16 12 12 13 11 11 12 12 14 14 14 14 30 53 55 50 46 57 49 32 32 35 38 47 71 74 83 84 90 94 96 92 90
32 44 53 41 35 36 37 32 27 24 23 23 22 20 18 17 16 15 13 14 13 11 11 10 11 12 14 15 17 32 55 53 44 40 57 48 39 37 41 47 62 80 81 81 82 93 94 93 95
38 45 49 38 32 32 34 29 22 22 23 22 21 20 19 18 18 17 17 16 15 13 12 11 10 10 13 17 17 18 18 53 35 30 55 63 54 45 46 45 54 72 84 89 88 91 93 96 95
39 43 41 37 26 28 30 30 20 20 20 21 23 22 26 32 37 48 45 32 23 17 13 12 10 9 10 18 21 43 57 64 69 50 42 61 70 57 53 52 54 61 71 88 97 96 93 90 96
24 22 26 24 28 28 36 42 25 25 27 24 20 22 95 100 92 78 65 55 47 43 32 21 13 11 10 10 20 47 63 48 39 31 25 43 65 62 59 63 67 67 76 92 93 97 97 95 93
22 19 23 26 50 56 34 43 25 23 26 41 80 96 99 100 100 100 98 98 96 88 67 42 20 14 11 12 19 27 52 35 23 20 35 34 60 63 56 63 74 77 85 96 95 94 97 92 90
28 42 44 44 54 61 33 34 34 42 98 94 88 90 98 98 99 100 100 98 99 98 98 70 35 19 18 16 17 22 35 30 33 40 40 42 56 62 53 60 73 78 86 96 94 95 93 91 91
44 52 79 79 93 58 31 43 48 98 98 98 97 96 99 100 99 99 99 99 98 99 100 97 84 53 33 26 39 49 49 52 29 41 51 48 59 54 46 52 72 82 77 91 92 87 90 93 88
50 53 66 71 71 62 40 59 97 88 82 96 100 99 99 99 100 100 98 100 100 100 99 99 97 99 99 85 77 97 88 69 76 65 59 63 62 56 47 49 58 80 75 85 87 90 91 91 93
60 67 44 55 49 66 66 58 77 69 74 84 98 99 99 99 99 100 98 100 99 98 100 99 99 98 98 100 99 98 97 99 96 78 78 72 63 61 56 56 79 85 80 87 93 90 90 91 93
55 53 79 84 97 96 71 80 96 92 88 86 94 96 98 98 96 97 94 98 99 100 98 100 100 99 99 99 99 98 98 99 83 76 74 69 62 53 65 72 88 84 86 92 98 95 98 98 97
71 81 72 72 86 93 92 94 99 96 95 94 95 97 98 98 97 97 96 98 99 100 99 99 100 99 100 100 98 100 99 97 88 79 64 60 59 66 71 74 80 90 91 93 97 96 92 90 84
48 60 75 94 94 79 86 98 96 94 96 90 85 88 93 97 97 96 96 100 98 100 100 100 100 100 100 100 100 100 100 100 93 70 65 66 67 71 78 92 93 95 96 93 92 87 87 91 92

GFSSGP_850_rhum_114.txt.gz
RH
13 12 14 21 12 8 7 5 5 6 6 9 9 7 6 8 9 14 15 40 43 49 33 35 36 42 44 43 40 42 51 57 62 67 68 68 65 64 64 66 64 60 55 53 55 60 67 65 61
19 15 23 14 11 10 8 5 7 5 6 8 8 9 9 10 15 18 28 55 42 74 35 36 37 42 44 43 42 41 47 53 54 62 64 62 62 64 66 68 65 62 55 55 58 67 68 63 65
20 23 17 12 12 12 9 6 6 7 9 9 9 10 11 13 24 30 36 56 48 79 55 34 34 42 43 44 44 42 42 44 47 50 52 55 58 62 65 66 65 63 56 58 57 69 71 65 64
24 20 16 15 14 11 10 8 9 8 10 12 11 10 13 27 29 37 50 63 57 76 79 37 35 41 42 46 45 43 44 44 47 50 53 54 57 59 61 59 61 59 57 58 59 67 68 63 60
23 18 15 16 14 12 10 11 13 11 12 12 12 11 13 20 31 41 49 56 82 83 87 46 47 42 43 48 45 45 46 47 48 50 52 56 58 59 56 55 57 57 59 59 59 61 62 59 54
16 18 17 16 14 13 12 13 14 12 12 12 14 14 15 18 26 45 51 61 70 88 91 53 52 52 48 48 45 47 49 51 51 52 54 57 58 58 56 54 54 59 60 60 62 62 57 56 50
17 16 17 15 15 15 12 16 14 13 12 13 18 16 16 19 23 49 46 55 55 60 55 61 56 60 58 53 47 50 53 54 54 56 56 57 59 60 58 56 55 59 62 63 65 63 54 54 49
16 15 16 17 16 17 12 15 15 15 14 22 20 15 18 23 21 32 39 31 55 61 64 66 63 61 65 60 54 56 58 57 56 59 60 60 60 63 64 61 60 60 62 64 66 62 54 55 50
23 16 16 16 16 14 13 18 16 23 21 19 22 22 23 23 19 19 22 50 85 66 65 68 68 65 71 77 57 61 64 61 60 60 64 64 68 68 69 69 67 64 62 65 67 64 59 57 54
17 14 14 12 13 13 13 16 15 19 18 18 18 19 19 17 17 19 20 23 51 92 69 67 68 68 62 86 81 64 66 64 64 62 63 68 94 98 99 89 72 71 68 67 70 68 65 63 69
15 17 11 18 17 17 17 18 16 15 15 15 16 16 16 19 18 19 21 21 31 66 95 61 63 66 62 73 76 88 92 89 73 69 80 76 95 90 94 96 78 78 77 76 76 72 71 82 94
20 16 15 15 19 19 16 14 14 14 14 16 16 18 20 20 20 18 21 20 24 48 81 82 52 57 52 52 51 53 68 52 47 48 80 94 78 95 99 98 100 96 89 98 91 94 96 100 100
20 13 15 19 18 16 16 15 15 14 14 15 19 19 18 18 17 16 17 20 21 30 53 84 80 50 42 41 40 42 40 82 49 45 44 57 55 62 71 92 98 98 99 99 100 100 98 97 99
17 20 18 16 15 13 13 12 13 14 19 17 15 14 15 15 16 17 17 17 20 21 24 25 76 84 71 43 34 32 33 49 34 34 36 44 51 62 52 81 95 95 100 99 99 100 98 95 99
16 17 12 11 10 13 17 15 16 14 18 15 14 12 12 13 12 12 14 16 17 19 20 17 17 53 45 45 44 37 30 32 36 27 33 41 49 70 48 50 84 95 99 97 91 99 100 99 97
19 17 14 13 16 14 14 11 8 17 16 13 12 12 12 12 12 12 13 14 14 16 19 22 14 16 31 18 30 59 46 35 32 28 33 33 33 45 59 48 52 90 98 98 92 91 95 99 96
18 10 10 11 13 14 14 12 10 12 13 15 14 12 11 12 12 13 14 15 15 16 20 24 14 14 15 43 47 36 53 75 72 40 32 30 30 33 49 69 51 63 71 70 97 97 87 98 98
11 14 12 14 11 15 15 14 10 13 13 14 14 12 12 11 12 15 18 24 40 42 34 16 16 16 15 38 79 80 85 90 94 91 68 45 42 41 45 90 77 53 65 71 76 97 98 95 97
18 19 17 13 14 18 17 14 10 8 8 8 9 11 12 23 42 52 62 65 68 67 57 35 19 24 23 38 53 67 84 85 80 87 75 60 54 51 55 69 49 33 39 57 72 88 99 96 97
20 19 17 15 18 17 12 10 8 7 9 12 11 24 50 57 64 69 73 76 81 81 80 81 66 45 52 53 38 59 68 82 68 73 73 84 78 53 53 51 51 37 37 72 69 73 94 99 98
20 22 20 18 13 11 11 11 7 10 10 24 49 54 57 63 68 72 76 80 86 87 90 86 76 71 48 58 69 42 66 72 82 84 92 92 65 47 38 44 55 49 41 45 81 74 78 94 98
21 14 15 16 17 15 11 18 13 9 16 37 45 53 60 63 64 69 76 81 87 90 97 93 80 63 60 69 80 69 45 61 72 89 86 24 37 55 43 41 47 56 44 43 48 74 72 88 90
18 18 20 21 22 22 18 20 15 9 15 45 57 65 64 66 67 70 76 83 87 90 97 97 94 79 74 92 96 91 63 61 63 79 90 61 18 44 65 41 52 54 53 44 48 79 79 71 90
18 23 20 22 25 30 18 15 15 23 69 72 68 73 68 67 72 75 78 84 88 93 98 90 93 90 81 83 90 98 94 64 59 65 82 88 52 22 36 57 64 57 55 55 50 61 74 70 79
25 27 29 30 41 31 20 26 16 62 63 64 67 68 67 72 78 84 88 89 95 100 96 91 92 94 96 98 99 87 93 91 74 65 77 85 96 94 56 58 61 68 57 62 62 61 78 70 77
30 29 28 24 20 18 24 29 26 54 52 55 61 66 72 77 83 89 97 98 100 99 99 99 100 99 100 98 99 99 78 91 81 75 72 81 94 99 98 69 57 64 56 60 61 62 65 74 79
28 38 23 34 30 39 26 18 46 52 56 56 64 70 78 83 89 95 100 100 100 98 99 100 98 99 99 98 100 99 97 98 84 82 82 85 94 98 98 99 98 68 56 56 56 53 65 72 68
28 27 53 42 64 53 29 28 59 89 79 72 77 78 86 91 98 100 100 100 100 98 96 99 100 98 99 100 100 99 96 89 98 98 91 94 97 99 99 97 90 84 55 54 56 57 60 78 81
39 43 41 42 46 58 57 76 92 93 91 85 70 69 82 92 100 97 98 99 100 98 98 100 96 100 100 100 100 100 100 94 99 89 92 92 98 95 99 98 98 99 99 80 62 61 64 74 83
30 35 40 60 61 50 62 69 76 85 80 77 68 71 78 89 99 95 97 96 97 96 95 97 97 98 100 100 100 100 100 99 95 91 93 92 96 98 98 99 99 99 100 100 84 66 90 95 97

GFSSGP_850_rhum_117.txt.gz
RH
15 14 19 16 13 8 8 6 4 4 4 6 7 6 6 6 7 13 16 37 50 53 60 45 38 39 39 41 38 37 40 56 62 63 63 66 64 58 55 58 57 55 53 56 56 60 61 65 62
29 20 19 15 12 10 7 5 5 5 5 6 5 6 6 9 11 17 25 37 55 62 80 53 44 41 37 40 37 36 36 49 60 63 65 67 67 63 61 64 64 60 56 57 59 63 67 63 58
26 21 17 12 12 12 8 6 6 5 7 6 6 8 8 12 19 26 32 55 64 65 75 74 50 43 40 40 38 37 35 48 55 61 66 67 64 63 64 69 68 64 58 59 62 68 64 62 62
22 18 17 15 13 9 9 7 7 7 7 8 8 8 10 22 24 32 37 58 68 65 71 78 55 47 45 40 40 39 38 43 48 55 60 61 62 62 66 69 68 65 59 62 63 72 68 62 58
22 16 16 14 13 10 8 8 9 10 9 10 9 9 9 17 21 34 40 61 72 68 71 74 58 51 52 46 44 41 40 41 45 50 54 54 57 60 64 66 65 64 60 61 66 73 69 58 57
16 14 16 15 11 9 9 9 10 11 10 10 10 10 10 16 20 30 43 59 84 75 77 84 68 57 58 53 50 45 42 43 47 49 52 54 57 59 58 60 64 61 60 62 67 69 67 59 55
16 13 16 14 12 11 10 11 12 11 10 10 13 14 13 15 22 20 27 56 84 91 86 93 66 62 62 58 57 53 48 46 48 50 53 56 59 62 61 58 61 60 61 63 66 68 66 60 55
14 13 15 14 13 13 10 10 12 12 12 16 16 14 14 19 22 19 20 32 79 96 95 96 69 65 66 64 62 59 55 51 51 53 54 58 64 65 64 62 60 63 62 64 67 69 67 61 56
17 14 15 13 12 12 10 12 13 13 17 15 16 18 18 19 18 16 19 22 48 72 97 99 90 79 94 84 66 66 64 60 59 58 59 61 66 67 69 67 63 63 63 66 69 69 65 62 58
15 14 13 10 10 12 11 10 12 12 13 15 14 15 16 17 15 17 19 20 22 49 93 98 99 89 100 90 96 72 69 68 64 62 61 64 78 98 96 92 67 68 69 71 74 71 64 64 64
12 15 11 10 10 14 12 13 12 13 13 12 12 14 14 15 18 18 18 19 20 32 72 97 100 99 79 88 89 95 92 93 79 73 80 68 94 91 96 96 85 75 74 77 78 73 70 67 90
11 11 11 10 10 13 13 13 12 11 11 12 12 13 15 17 17 16 16 17 20 25 57 88 99 97 73 68 90 86 80 88 90 94 88 91 90 92 93 95 100 94 93 89 86 87 77 91 87
8 9 8 8 11 13 12 11 10 10 10 10 10 15 15 15 15 15 14 16 18 22 34 69 96 99 98 85 95 68 68 81 84 88 91 90 84 85 95 84 86 88 94 96 99 92 98 97 97
9 10 11 10 10 10 10 9 8 7 9 12 12 12 12 11 12 12 14 15 17 20 21 29 56 90 95 97 97 90 69 81 89 91 90 91 87 90 89 85 78 80 79 97 100 98 95 97 98
11 11 8 7 7 8 10 12 10 9 11 14 12 11 10 10 10 10 10 12 14 16 18 22 30 34 78 91 95 96 97 90 82 90 91 58 79 88 90 83 80 74 75 89 98 98 95 97 94
12 12 13 8 9 8 11 12 6 10 11 11 10 9 9 9 8 10 11 12 12 13 16 20 24 31 45 65 81 91 93 93 84 83 84 48 36 75 92 72 69 78 76 91 92 96 98 92 93
11 15 14 10 9 9 10 11 7 8 11 10 10 11 10 9 9 10 12 14 15 19 28 33 40 40 38 42 67 82 86 89 90 81 91 76 29 33 70 92 58 65 85 89 94 93 97 99 99
16 12 10 11 8 8 10 11 9 8 8 10 10 9 10 9 11 31 41 49 51 54 56 58 56 62 58 42 44 65 77 82 88 89 82 82 80 37 45 92 86 56 71 90 94 98 97 95 99
14 16 14 10 8 9 11 12 9 7 6 6 6 6 7 16 36 44 50 54 61 64 68 65 68 70 70 63 39 43 68 76 80 79 89 84 88 89 83 84 87 64 44 52 90 94 99 91 98
17 16 14 10 9 11 14 12 8 7 6 6 8 9 27 37 39 44 50 56 63 68 72 77 76 74 75 68 64 45 40 54 69 75 79 88 89 90 89 85 87 91 68 58 99 98 99 92 91
16 15 15 14 12 10 11 11 9 8 8 8 25 33 34 40 46 48 50 54 61 67 74 79 84 84 83 85 81 70 56 46 56 72 76 85 89 92 90 85 73 91 69 59 81 90 99 97 92
17 11 13 15 16 19 13 20 14 11 10 15 28 40 46 50 50 52 56 58 62 65 73 80 86 93 91 90 88 83 71 52 43 64 81 76 86 90 87 93 91 92 71 69 54 57 65 100 98
18 14 17 17 18 20 17 18 15 11 11 23 38 47 50 51 54 58 62 66 68 67 74 84 94 97 97 98 100 98 89 76 68 52 68 76 82 83 89 94 95 97 93 56 53 59 74 94 100
14 17 19 19 21 30 21 19 16 26 48 43 44 49 52 55 58 62 66 72 75 78 82 91 98 99 100 100 98 98 96 95 83 71 58 74 79 80 85 92 93 97 96 83 60 58 64 86 96
20 26 35 35 31 31 18 18 16 39 43 48 48 51 57 61 64 69 75 82 87 90 93 99 100 100 100 98 97 92 93 90 96 85 64 78 82 85 81 96 99 99 94 64 65 68 65 94 84
17 23 33 39 32 24 12 21 28 38 39 44 52 56 64 69 74 79 86 94 98 100 100 100 100 100 99 98 94 90 92 99 92 86 43 65 75 78 90 88 99 99 99 80 70 75 70 79 70
19 24 20 31 28 35 23 15 31 42 48 52 59 61 70 75 85 90 96 100 100 100 100 100 100 99 100 99 96 98 99 99 98 84 67 65 75 72 87 93 88 95 98 100 80 63 59 69 66
25 18 35 34 54 45 24 20 66 90 75 66 68 63 71 81 93 99 100 100 100 94 99 100 100 100 99 99 100 100 100 99 99 98 76 76 80 80 86 97 89 96 99 99 100 84 68 77 75
22 33 29 29 44 55 55 81 88 88 86 82 65 62 70 83 91 93 94 100 97 98 99 98 100 100 99 100 100 99 99 99 99 98 81 76 84 84 89 92 88 94 99 99 100 94 66 92 89
23 26 30 53 45 52 43 57 69 78 72 69 74 79 69 81 86 96 94 97 97 96 96 96 98 100 100 100 98 100 100 100 100 100 91 90 86 85 90 95 94 94 100 100 100 99 100 81 90

GFSSGP_850_rhum_123.txt.gz
RH
16 16 20 19 25 27 25 17 10 10 9 5 5 6 6 11 18 48 34 46 54 46 45 55 44 34 30 32 33 31 29 32 47 56 59 60 58 54 53 52 49 45 44 46 51 58 64 63 61
18 22 25 19 30 34 28 14 10 8 6 6 5 5 6 21 25 32 25 49 54 52 63 63 52 44 36 36 38 33 31 34 49 58 61 62 61 58 56 57 55 51 47 46 49 56 58 61 63
20 24 23 30 33 34 26 11 9 8 7 7 6 6 8 23 26 36 35 23 56 58 64 71 64 52 48 41 40 35 34 36 48 57 62 63 62 60 58 59 59 56 53 52 52 55 62 61 59
23 22 19 28 31 25 19 14 8 8 8 7 8 9 17 22 28 37 33 18 46 63 66 68 68 60 54 46 43 39 38 39 50 56 61 63 63 60 59 62 63 59 56 54 57 64 63 59 61
26 23 30 30 27 20 15 12 9 10 10 10 9 10 20 22 26 29 26 20 51 68 72 70 67 64 56 48 45 43 40 39 48 56 59 60 61 60 61 63 66 64 61 56 58 66 66 63 57
26 20 32 33 26 17 14 11 11 13 13 14 14 11 23 22 21 20 21 22 34 66 79 76 72 60 56 50 46 44 41 42 47 56 59 61 58 57 61 64 65 64 62 59 60 64 68 64 56
21 27 30 26 23 19 14 11 14 13 13 16 14 16 22 18 19 19 17 20 22 37 59 85 84 79 64 56 49 46 43 41 43 50 55 56 55 58 61 66 68 63 60 60 64 70 71 64 55
19 23 25 22 22 20 13 11 11 12 14 14 15 17 19 18 17 17 16 19 21 35 43 55 72 80 77 60 54 49 47 43 42 45 48 49 54 58 62 66 68 66 63 58 61 65 70 69 57
17 28 32 25 19 16 11 14 12 11 11 13 14 14 15 16 15 15 15 17 24 27 29 33 55 62 81 73 58 53 52 47 44 46 48 50 52 56 57 61 68 68 64 59 61 63 63 67 59
17 29 27 20 15 15 11 12 11 12 12 12 12 13 12 13 14 16 16 15 18 19 24 49 71 72 83 77 67 58 55 51 46 46 51 51 49 51 53 56 62 66 68 63 63 66 65 64 60
12 22 18 14 12 11 11 11 11 13 15 14 11 11 11 12 14 15 14 16 17 18 23 40 68 84 85 94 74 66 60 56 52 50 53 55 53 54 56 56 56 63 64 65 63 66 63 64 60
13 11 11 11 10 9 10 8 10 10 11 9 9 9 9 12 12 15 14 15 15 16 18 24 45 74 90 92 99 88 72 64 59 55 53 59 59 59 62 56 51 54 61 63 62 62 63 61 60
12 12 9 9 9 9 10 10 11 10 9 9 9 8 9 12 14 14 13 13 14 16 22 23 22 22 52 88 91 98 95 89 72 62 59 54 62 62 62 61 56 56 63 66 65 64 65 64 62
11 12 12 11 10 9 10 9 9 8 8 8 8 8 11 12 11 11 10 11 19 17 22 33 49 76 74 61 82 93 93 99 87 76 65 59 52 59 68 84 71 64 82 71 68 68 66 66 65
12 15 14 12 11 12 9 11 10 7 8 9 9 11 11 11 10 18 21 25 24 23 24 30 36 39 59 65 74 85 89 89 88 90 83 69 58 58 64 87 86 70 79 75 69 72 76 77 79
16 17 21 14 12 12 10 15 10 8 9 10 11 11 11 10 14 25 30 30 31 23 16 28 35 36 37 39 39 46 71 89 90 89 85 98 76 78 70 80 84 79 93 78 78 72 75 72 83
21 30 25 20 14 10 10 13 10 9 9 10 9 11 11 10 25 41 40 37 35 39 42 39 40 42 41 40 42 39 43 58 88 87 86 86 84 80 81 81 80 84 92 86 87 81 80 71 78
24 25 22 21 15 16 15 16 13 9 8 10 11 10 10 33 44 45 46 47 44 41 37 33 30 30 30 34 41 46 45 45 55 86 85 83 83 80 81 76 90 84 84 84 90 85 86 78 68
19 22 22 18 17 17 17 16 13 11 11 12 10 12 32 44 47 49 50 49 45 38 32 26 22 23 26 23 28 32 44 46 54 54 85 90 73 78 88 75 78 80 84 88 86 82 82 81 80
25 24 23 19 17 17 17 17 14 13 12 13 20 39 45 47 50 52 53 51 47 46 45 41 36 37 45 51 48 56 52 50 58 55 71 94 92 87 72 68 78 79 75 81 90 81 88 86 82
21 21 22 22 18 16 18 19 17 14 12 40 45 47 51 56 57 59 58 59 58 57 57 53 50 48 53 63 61 59 57 52 44 54 59 64 69 92 80 74 72 64 84 76 79 89 88 85 86
22 18 19 21 24 32 19 33 22 16 26 46 48 52 58 60 61 64 66 68 70 68 66 58 56 60 60 63 66 70 78 79 56 44 45 55 62 77 94 85 73 61 80 79 72 82 89 76 73
22 20 22 22 26 28 24 34 24 19 54 52 50 59 63 66 70 74 78 79 73 65 61 63 64 64 66 65 67 72 76 86 91 64 41 36 52 60 85 97 93 83 77 80 69 67 82 80 56
18 20 26 28 30 42 26 30 42 64 57 57 57 61 66 69 70 69 69 68 67 66 68 70 73 78 72 68 70 74 78 82 96 98 62 43 30 45 58 72 96 95 86 76 74 72 88 83 78
19 26 60 63 61 51 26 30 70 58 59 58 63 66 70 78 84 84 93 85 82 84 85 86 90 84 81 77 76 83 94 97 96 100 91 65 45 28 34 54 67 92 90 81 81 81 83 98 79
28 30 53 64 62 48 27 40 71 57 57 59 64 68 76 83 87 97 91 88 90 90 92 99 100 100 86 85 86 89 94 100 100 96 91 81 69 49 35 29 44 71 91 91 82 82 81 90 83
27 35 26 39 37 46 38 58 70 59 65 65 67 74 84 86 94 96 89 89 89 89 92 100 100 96 94 98 99 98 99 100 98 99 99 86 69 62 55 49 38 36 59 89 87 83 79 86 81
25 24 54 65 65 61 46 47 87 89 87 82 73 78 92 92 92 92 90 90 88 91 94 100 95 100 100 98 100 100 100 100 100 99 98 99 90 74 59 56 53 44 40 57 80 77 75 80 82
32 40 39 47 49 69 77 76 90 93 84 80 69 74 91 92 96 96 89 89 94 96 98 97 96 98 95 96 99 99 100 100 100 100 99 98 99 89 79 75 72 61 56 74 61 73 75 96 90
27 31 41 72 53 52 58 76 80 86 76 70 70 77 88 97 98 96 94 95 96 96 95 96 96 94 98 98 98 99 100 100 100 100 100 100 100 97 98 100 100 84 90 76 75 63 53 53 81

GFSSGP_850_rhum_126.txt.gz
RH
15 16 19 18 24 31 27 19 12 9 8 5 5 11 22 20 30 47 56 50 37 31 35 50 44 41 37 32 34 36 32 34 46 56 58 59 55 51 50 48 45 44 46 50 53 55 60 67 67
17 24 22 20 32 38 31 20 8 8 7 6 6 8 20 31 32 38 38 36 34 38 46 52 54 45 44 38 36 34 31 35 46 55 59 60 58 54 54 53 51 47 47 50 55 58 63 63 64
21 23 22 32 39 39 31 14 10 8 7 7 7 9 20 31 36 45 46 28 23 36 58 65 64 53 48 45 39 34 33 37 45 55 62 62 60 57 55 56 56 53 50 52 56 59 62 64 63
23 23 22 32 34 29 22 20 15 9 8 8 8 19 28 30 36 36 28 30 32 44 76 74 73 68 56 50 43 36 35 38 46 55 63 62 62 57 56 55 56 55 53 54 56 63 68 60 61
26 25 34 33 31 24 19 15 13 17 13 13 11 24 23 26 24 22 20 20 21 31 71 78 76 70 66 56 46 39 37 37 42 52 60 62 61 57 54 54 56 56 56 54 58 69 66 64 68
25 24 36 37 29 21 17 14 14 16 16 14 15 25 23 21 20 20 19 18 18 20 37 69 74 76 71 63 50 42 39 37 40 44 54 59 59 54 52 54 54 53 57 56 58 64 69 68 67
25 31 33 28 26 22 16 12 14 15 17 16 15 27 23 20 18 18 18 18 20 25 26 44 44 70 76 66 58 47 42 38 40 41 47 54 53 52 53 54 54 53 54 54 58 61 68 64 62
20 27 26 25 25 23 13 12 12 12 15 14 15 20 22 16 16 16 18 18 22 26 27 24 28 48 67 79 66 53 47 43 44 48 48 53 54 51 52 55 54 51 53 53 54 60 65 66 58
16 30 36 27 21 17 13 13 11 11 12 12 14 13 14 15 15 15 16 16 18 19 21 35 45 62 66 74 75 60 50 49 50 51 51 58 57 55 53 54 55 53 52 51 54 58 64 66 59
19 33 29 23 20 17 14 12 12 12 13 13 12 12 10 16 15 15 14 14 14 18 20 41 60 67 73 75 81 70 58 51 48 51 53 51 60 57 55 56 58 58 56 53 53 57 61 63 62
14 22 20 18 14 16 12 10 9 11 14 11 10 10 9 11 12 14 13 12 16 17 18 29 47 65 78 79 86 80 65 58 53 50 49 50 51 63 60 60 60 65 66 61 56 55 58 59 61
15 12 13 12 11 10 12 9 9 9 10 9 9 9 9 9 12 13 13 15 14 16 17 53 62 67 76 74 82 93 76 67 62 57 53 54 54 54 63 58 57 59 63 64 60 54 54 56 60
13 12 12 12 11 11 10 10 11 10 9 9 8 8 8 11 13 13 13 13 17 17 35 52 54 57 82 93 99 99 95 87 81 70 63 60 57 55 58 65 64 62 61 62 64 59 58 59 60
15 15 13 11 11 12 12 11 10 9 8 8 7 8 8 12 13 13 16 22 21 28 34 62 44 46 58 63 72 87 99 100 93 79 77 71 65 61 60 57 67 66 65 59 61 64 61 61 64
15 16 15 13 12 13 12 14 13 9 9 8 9 9 11 15 26 32 42 34 33 29 34 40 41 46 61 66 68 69 93 99 99 100 97 93 84 70 65 64 58 59 67 68 73 71 71 69 69
18 18 21 16 13 13 13 21 13 9 9 10 10 11 16 50 49 49 47 43 40 35 31 34 38 39 41 44 45 46 56 65 80 92 99 100 97 96 86 72 67 64 78 78 86 84 74 73 75
22 27 25 22 16 14 14 14 12 10 10 10 12 12 43 51 51 52 50 48 44 40 36 32 30 29 28 31 32 35 38 40 44 50 75 98 97 73 94 85 77 76 89 86 84 82 80 72 75
26 26 24 26 18 18 18 18 15 11 11 12 13 27 50 55 57 54 51 49 46 43 38 33 28 25 22 21 20 20 18 19 27 36 48 71 96 100 96 97 83 91 83 83 80 90 84 80 74
23 25 27 24 18 21 22 21 14 12 25 41 51 54 57 61 61 56 53 49 43 36 30 28 25 22 22 18 14 11 10 9 10 11 22 46 69 95 100 100 86 69 84 80 88 82 82 90 90
28 31 31 21 18 18 20 20 16 25 52 54 58 61 62 60 58 56 52 45 38 37 35 32 31 29 29 30 29 30 22 19 20 21 16 23 50 71 93 100 100 79 73 74 83 74 73 75 72
27 29 24 24 21 18 19 22 18 35 49 56 63 65 66 68 66 61 57 55 52 48 46 44 42 41 38 39 38 35 36 31 30 32 31 23 28 52 68 90 100 100 75 76 84 70 70 67 68
26 19 21 22 26 33 21 38 26 43 57 58 65 69 70 67 65 64 61 60 62 59 56 53 51 49 51 52 51 54 48 41 34 40 35 31 27 27 51 67 85 100 100 99 86 61 50 67 69
23 18 22 22 28 29 28 34 28 49 66 68 65 71 75 75 73 68 68 65 63 65 72 70 67 66 64 62 62 61 60 57 52 46 46 41 34 31 28 48 66 91 99 99 70 50 43 73 72
19 23 30 30 34 45 28 33 37 76 69 69 68 74 80 80 78 78 73 68 69 70 69 67 68 66 67 66 67 68 70 69 69 63 58 51 44 38 37 32 41 63 84 97 96 92 81 76 86
21 34 57 58 63 56 32 37 76 71 67 69 73 80 85 85 87 82 79 78 78 80 82 89 90 77 76 76 74 78 87 93 91 91 83 70 56 46 43 47 35 38 66 80 91 98 92 73 75
28 36 56 63 68 57 34 45 84 64 65 69 75 78 80 84 86 84 82 82 85 86 95 100 98 91 87 88 86 91 100 100 100 99 99 99 90 67 54 56 53 37 34 52 65 94 98 91 90
27 37 31 42 43 58 47 88 67 66 74 77 74 89 93 86 83 86 87 92 94 96 99 100 96 94 94 96 95 96 100 100 100 99 100 98 100 97 71 64 60 52 40 30 35 55 89 88 86
26 27 45 66 59 60 50 52 89 92 85 73 80 92 93 86 84 91 93 95 94 96 95 100 96 98 98 96 98 100 100 100 100 100 99 100 99 100 99 71 58 58 53 48 43 40 54 80 83
34 37 39 49 55 63 76 76 88 90 90 85 74 82 96 91 90 94 95 94 94 97 94 97 96 96 95 93 96 100 100 100 100 100 100 100 100 100 100 98 95 88 74 69 62 52 48 60 81
31 37 46 64 51 57 53 64 80 87 85 75 77 81 91 98 94 97 97 96 95 98 95 96 92 91 94 97 98 98 99 98 99 100 100 100 100 100 100 98 98 98 99 89 85 57 59 58 64

GFSSGP_850_rhum_129.txt.gz
RH
12 15 19 20 23 31 26 22 15 10 8 6 12 19 29 28 32 35 63 54 43 40 44 49 47 45 44 46 46 46 41 35 42 52 56 57 53 45 46 46 45 47 51 47 48 56 59 58 62
15 19 20 20 33 30 25 23 10 10 7 7 13 16 28 34 41 46 46 47 48 46 46 50 52 49 49 49 49 46 40 37 44 52 56 59 56 48 49 50 48 48 52 54 57 61 64 64 59
18 21 20 37 45 32 30 19 21 16 12 8 8 20 26 39 41 39 34 24 28 42 52 62 59 56 50 49 50 48 40 41 47 54 57 60 59 50 49 49 51 49 50 52 59 64 64 68 66
20 20 22 34 33 29 24 22 18 17 9 10 14 27 35 34 40 30 21 21 30 36 55 65 70 69 66 54 49 46 42 43 47 54 58 60 61 52 52 50 53 52 49 49 52 58 66 66 68
21 24 36 36 31 26 22 17 16 19 16 19 16 27 29 27 22 20 20 18 19 34 54 67 76 74 68 65 55 46 41 44 47 53 59 58 64 56 52 50 52 53 50 49 52 60 66 61 67
23 25 39 38 30 24 20 14 13 17 18 17 24 25 23 23 24 21 21 20 20 20 28 39 55 74 72 72 62 50 41 42 47 52 61 61 64 61 55 51 51 53 51 49 51 60 64 63 62
26 32 34 31 28 21 14 12 15 15 16 15 20 28 24 19 18 19 19 19 27 25 25 29 35 49 78 74 69 57 46 42 44 50 56 63 64 63 57 56 54 53 52 51 51 57 65 65 56
20 29 28 27 26 22 14 11 12 13 13 14 16 22 22 16 16 17 17 18 20 20 24 31 36 54 78 90 78 68 54 47 43 47 53 62 62 64 64 59 58 56 53 51 50 55 66 66 56
18 34 36 28 24 20 14 12 10 12 11 13 13 12 13 15 14 13 14 15 15 17 19 36 55 68 73 77 81 85 67 55 51 56 60 62 63 62 68 66 63 62 59 56 53 55 65 69 58
21 35 31 24 21 20 16 12 11 10 12 12 10 12 10 14 15 15 14 15 17 18 27 49 63 71 81 85 86 84 84 66 60 59 60 66 70 71 66 70 69 67 63 59 56 57 65 68 63
17 22 19 16 15 17 16 12 11 11 14 10 9 9 8 10 10 16 18 18 17 16 18 49 78 79 64 85 99 100 97 80 70 68 71 75 76 77 77 71 75 75 75 67 60 60 67 66 65
14 13 14 13 11 12 12 10 10 10 10 9 9 9 8 8 16 19 18 18 18 19 25 65 44 46 48 74 99 98 98 96 84 73 68 68 73 73 75 76 69 77 78 73 64 58 58 69 70
14 15 14 13 12 12 12 11 12 10 9 9 8 8 9 12 20 29 32 30 30 24 54 66 63 52 60 83 90 88 83 88 98 98 87 75 66 65 68 69 72 70 78 83 72 64 58 63 74
18 17 14 13 13 13 13 13 11 10 11 9 8 14 23 28 40 39 34 34 32 38 43 56 55 56 59 58 65 73 78 81 87 99 99 100 97 85 74 67 69 73 73 79 84 73 66 62 65
17 17 18 14 13 14 13 16 14 12 11 9 12 39 47 51 44 44 48 43 42 39 39 44 46 46 52 63 66 64 65 70 80 87 92 90 100 100 97 91 80 73 80 86 83 84 77 71 68
20 20 23 16 15 15 15 21 15 11 10 11 49 58 57 57 55 53 51 48 46 44 40 38 37 38 40 40 44 47 46 44 47 49 50 66 78 93 99 99 96 89 83 84 85 84 84 82 78
25 27 26 23 18 17 14 16 14 13 12 17 52 56 56 55 53 54 53 50 48 45 41 37 33 31 29 28 28 27 27 29 32 31 30 33 42 52 71 94 93 96 96 90 81 78 79 88 87
27 27 26 26 21 20 19 19 18 34 33 57 61 63 61 60 61 58 54 50 46 42 38 34 29 26 23 21 19 18 17 16 15 14 12 12 14 27 49 79 96 78 70 98 96 84 80 78 82
24 27 30 27 22 23 20 22 16 53 59 64 63 64 67 66 63 56 50 45 40 36 34 32 30 27 25 20 17 14 13 13 12 11 12 16 15 16 25 57 67 91 90 84 92 93 93 87 80
32 34 36 31 25 21 21 20 65 59 63 66 68 67 66 64 60 53 47 43 40 39 37 35 34 33 34 34 33 31 27 19 17 16 16 19 24 24 24 35 66 86 81 84 89 94 98 95 88
35 36 35 30 22 21 21 25 47 59 61 65 68 68 66 65 60 56 54 52 49 46 44 43 41 40 38 38 37 38 37 35 32 29 26 28 32 33 31 30 41 71 82 100 79 88 76 93 93
42 25 24 23 26 33 22 40 30 66 69 66 72 73 72 68 64 61 58 57 60 60 58 57 54 51 51 51 51 53 52 46 48 48 40 38 39 38 36 34 33 48 76 82 100 80 91 80 90
26 21 21 24 27 30 30 35 48 66 75 74 72 79 81 76 71 65 64 63 63 64 63 64 68 71 70 69 69 70 68 66 63 62 58 54 55 53 48 41 39 34 52 74 96 95 80 74 90
20 23 31 38 36 43 32 34 38 78 74 76 74 82 80 77 73 72 71 70 70 73 78 80 84 76 77 75 72 74 78 82 78 79 80 72 71 70 65 54 46 43 38 53 83 100 100 83 99
24 31 54 54 59 52 37 40 40 78 72 72 79 85 85 80 78 81 79 77 76 77 78 81 87 81 84 87 86 90 93 96 100 100 100 99 98 98 96 74 58 50 43 41 57 90 98 99 100
30 35 52 53 69 47 37 48 58 71 71 75 82 88 86 84 84 82 78 78 78 81 84 89 88 86 89 88 92 98 100 100 100 100 100 100 99 97 99 100 94 66 53 47 43 51 75 80 88
30 37 33 41 48 61 48 71 70 72 79 79 82 91 94 89 84 83 80 82 83 88 93 100 96 93 92 94 98 100 100 100 100 100 100 100 100 100 97 99 100 100 78 66 56 41 47 62 74
27 29 48 66 61 63 52 48 70 92 88 81 85 95 93 89 85 88 90 91 93 94 93 89 92 95 96 96 96 99 100 100 100 100 99 100 100 99 100 98 100 97 89 79 70 63 50 44 45
34 36 41 50 53 61 54 71 75 84 87 86 82 91 91 89 89 92 92 94 95 94 93 94 96 98 95 92 96 93 96 97 98 99 100 100 100 100 100 100 99 98 99 100 98 83 69 58 50
30 40 46 71 51 60 60 56 81 87 87 77 79 85 89 88 89 91 92 94 94 94 96 97 96 92 92 97 96 95 95 97 96 97 100 100 100 100 100 100 100 99 99 99 97 99 99 94 92

GFSSGP_850_rhum_132.txt.gz
RH
11 16 18 18 22 28 25 20 17 15 12 14 16 12 23 34 35 33 52 48 45 43 49 50 48 47 47 46 47 51 54 55 56 54 55 54 50 42 40 42 41 42 44 38 39 43 58 58 58
14 19 19 20 29 26 25 23 16 19 15 12 13 25 34 38 45 58 44 35 35 40 46 53 52 50 50 49 49 50 50 51 56 57 58 57 53 44 44 45 44 44 46 45 46 51 55 59 61
18 19 19 38 44 30 28 23 22 19 15 10 15 27 33 43 41 40 34 29 39 54 62 59 59 57 54 52 50 50 50 45 52 58 58 60 57 49 47 47 48 45 47 51 52 54 56 57 59
20 20 23 34 31 28 26 23 20 20 14 18 22 29 38 39 33 23 21 29 36 48 68 72 70 66 62 59 57 51 48 44 52 59 59 61 61 55 51 47 50 50 49 52 55 57 55 58 62
22 22 36 38 30 27 24 19 16 22 21 22 22 29 35 31 22 21 20 22 35 42 60 73 78 79 78 74 68 61 53 47 53 60 61 61 63 60 54 51 51 54 52 53 55 57 59 62 60
22 26 36 37 31 24 20 15 14 18 15 18 24 26 24 26 26 24 28 31 29 41 47 54 69 76 79 75 74 68 58 52 55 63 66 64 64 65 56 54 52 54 54 53 53 56 64 58 57
26 32 34 36 29 22 14 12 15 15 15 16 23 28 24 18 19 19 18 24 40 38 51 52 57 66 77 83 76 72 63 58 60 65 70 70 66 68 63 58 57 55 53 54 53 57 65 61 60
20 31 29 28 29 23 15 12 11 12 13 14 15 21 22 17 16 16 20 18 22 18 28 61 69 74 84 87 92 86 74 63 64 71 76 77 70 74 72 65 63 62 59 57 54 56 64 67 63
19 35 34 27 28 22 15 15 12 11 10 13 12 12 12 12 13 14 15 16 16 16 18 34 60 71 74 81 88 87 92 88 68 70 77 83 76 75 80 74 66 65 67 64 59 56 58 67 66
23 36 31 25 22 21 18 15 13 12 11 13 11 11 10 11 15 14 16 16 16 17 22 34 60 62 76 83 96 95 94 96 88 77 77 84 82 78 81 84 77 68 70 73 69 64 62 66 67
19 24 21 16 15 13 17 12 11 12 12 10 10 9 11 16 14 18 22 23 27 27 31 48 50 51 63 50 75 88 96 91 90 87 84 85 87 86 83 84 83 78 71 74 77 74 67 64 64
13 13 15 14 13 14 13 12 11 11 10 10 10 13 13 19 26 30 33 44 50 51 55 65 62 59 60 60 57 72 84 80 80 84 84 88 89 84 76 82 84 84 79 73 75 80 74 69 65
14 16 16 15 14 14 13 13 13 11 10 10 13 17 32 42 46 46 46 49 57 56 68 74 70 69 67 73 82 78 67 72 73 72 75 90 92 92 90 82 82 81 83 82 77 76 80 75 70
19 18 18 15 14 14 14 14 12 13 13 22 28 46 51 51 54 50 43 42 39 45 50 57 58 57 59 61 62 64 64 58 59 72 79 79 96 92 97 97 89 83 82 77 78 74 79 76 73
18 20 19 16 14 14 14 16 14 14 23 50 56 59 55 54 49 49 52 48 47 44 42 41 43 45 45 49 57 59 58 55 51 50 53 60 55 66 94 99 91 99 90 88 86 83 77 77 77
21 22 24 17 18 15 15 19 15 20 25 61 58 56 53 54 54 54 53 50 48 45 41 39 36 34 33 34 36 36 37 38 40 39 38 39 41 42 42 49 34 62 96 98 97 85 90 78 73
28 28 26 24 19 18 19 19 27 28 40 65 64 61 58 56 53 53 52 49 46 44 41 39 36 33 30 26 25 24 22 22 22 22 23 21 19 19 19 25 41 32 31 65 99 97 87 87 87
29 27 27 26 20 24 23 24 44 57 57 68 66 63 60 57 56 54 50 46 42 39 37 35 33 31 28 25 22 20 18 17 17 16 16 16 15 15 14 14 18 39 47 26 32 83 99 97 90
24 27 30 28 24 25 28 25 61 62 64 69 70 68 66 63 59 52 46 42 39 37 35 34 33 31 30 27 25 22 20 18 18 18 17 16 19 20 19 17 19 20 31 58 75 66 70 64 90
32 34 39 33 28 29 28 26 65 66 69 69 70 73 71 64 56 50 46 43 40 39 38 36 36 35 34 34 34 35 34 31 29 26 26 25 24 26 27 25 20 25 24 54 78 86 74 68 63
36 39 37 37 24 22 22 29 67 65 67 68 71 72 70 69 64 58 53 51 48 45 43 43 42 41 42 43 42 42 42 40 40 37 36 36 31 32 33 33 30 25 31 35 81 95 93 80 76
41 34 35 32 26 34 24 41 33 72 72 68 72 70 69 66 63 62 59 57 57 56 55 56 56 58 59 58 58 60 60 57 57 54 50 46 50 45 45 44 40 32 33 32 46 94 99 99 91
38 23 23 24 27 31 31 37 43 74 78 76 73 75 75 73 70 66 65 65 65 65 70 74 77 74 75 76 76 78 79 85 79 76 71 68 63 60 61 62 56 47 41 38 36 67 100 98 81
23 22 31 42 38 48 36 36 40 80 66 77 75 79 78 75 69 69 70 73 75 78 79 78 83 81 84 86 88 99 100 100 100 100 98 87 80 83 84 89 78 65 56 48 43 47 77 100 93
25 32 55 57 56 49 38 42 34 69 70 68 74 81 80 77 72 73 72 75 74 76 78 78 80 81 83 85 89 93 100 100 100 100 100 100 100 100 98 99 99 97 77 63 52 47 80 100 100
32 37 52 51 62 50 40 51 42 72 68 72 74 78 80 74 71 76 78 77 76 78 80 81 81 83 83 84 85 90 98 100 98 100 100 100 100 100 100 99 98 98 99 94 68 53 53 90 100
33 39 34 41 48 64 43 43 72 77 82 85 86 89 82 79 78 78 79 80 83 85 87 89 91 88 86 90 97 96 97 100 100 100 98 99 100 100 100 99 99 98 98 100 99 70 60 58 83
28 32 50 67 63 63 55 51 54 90 87 88 90 90 89 87 81 82 83 86 89 90 91 91 93 91 92 95 99 99 99 99 96 96 96 97 99 100 100 100 100 100 99 99 100 99 95 68 58
34 38 46 51 54 68 62 71 70 70 81 89 87 87 88 89 84 87 88 90 80 83 90 92 92 93 91 93 96 96 95 96 96 96 96 97 98 99 100 100 100 100 100 99 99 99 100 97 75
31 36 47 71 50 59 69 57 86 88 89 80 84 88 91 88 84 87 88 70 43 33 62 83 91 90 93 94 96 95 96 95 95 96 96 97 97 99 100 100 100 100 100 100 100 99 100 100 99

GFSSGP_850_rhum_135.txt.gz
RH
12 16 18 18 16 17 20 17 16 16 15 22 11 20 25 38 34 37 62 51 54 48 55 53 52 51 52 54 56 56 55 55 55 54 52 51 44 31 33 40 40 38 38 37 37 40 51 58 53
16 19 18 19 17 17 18 19 17 17 16 17 17 30 32 39 46 53 43 36 40 51 54 57 57 56 57 60 61 59 58 58 57 56 55 54 50 39 32 37 40 40 41 39 38 41 52 56 56
19 18 19 24 25 20 21 17 17 18 18 14 24 31 37 42 44 39 34 38 41 54 60 60 61 60 61 63 64 65 62 59 58 58 57 55 53 48 39 36 42 42 42 43 43 47 51 55 57
20 19 22 22 25 24 19 16 17 19 19 21 26 30 40 43 38 30 23 28 40 60 71 72 70 67 66 65 65 65 66 62 61 61 60 58 56 53 48 43 44 45 44 45 46 48 54 54 55
21 20 24 27 26 23 20 18 17 17 20 23 24 30 36 39 35 32 27 26 36 52 65 72 75 78 80 82 77 72 67 64 64 66 63 61 59 57 55 52 50 50 48 48 48 50 53 53 59
21 24 23 24 24 20 17 15 15 15 18 20 24 25 26 23 27 30 28 34 43 44 47 62 67 69 72 80 81 78 73 66 66 69 69 66 65 66 63 60 58 56 55 51 49 49 52 57 60
23 23 28 27 23 19 15 14 14 14 14 16 24 25 23 19 23 21 22 32 35 30 56 55 55 62 73 82 82 79 78 78 67 70 75 72 71 70 66 66 65 63 60 58 54 52 54 59 56
20 22 27 26 24 21 15 14 12 13 13 14 14 21 21 19 18 18 24 27 28 20 33 50 66 74 77 80 84 90 84 81 80 80 76 80 77 77 74 73 71 70 66 63 60 57 59 62 57
20 23 26 25 23 21 16 15 12 12 12 13 12 13 11 12 18 18 18 19 20 19 24 50 68 80 88 83 94 92 91 96 87 80 85 83 86 80 80 78 73 72 72 69 64 62 63 68 66
21 25 25 22 22 15 16 16 14 12 12 13 11 12 13 11 17 16 18 22 24 28 33 42 68 72 64 78 78 90 91 93 94 92 80 88 91 91 81 82 80 76 73 76 72 68 69 77 75
20 21 21 16 17 14 15 12 11 12 10 15 14 14 12 17 18 19 29 31 32 41 60 63 69 70 73 62 56 73 74 77 84 84 87 82 82 97 90 82 84 84 80 79 79 76 73 70 73
14 15 15 14 15 15 14 12 12 11 29 21 18 18 21 20 21 31 40 48 52 52 53 64 68 70 71 76 68 62 64 64 67 76 74 76 85 81 84 90 88 90 91 85 78 78 76 68 66
14 17 18 16 16 15 15 14 14 22 25 27 28 26 29 38 44 48 49 52 54 56 58 65 64 66 67 69 73 78 72 60 59 64 72 72 69 73 81 97 93 84 90 93 91 82 75 76 69
20 19 18 16 16 15 15 15 14 38 39 35 36 49 53 52 52 50 46 43 42 42 42 43 47 49 47 48 55 60 61 62 61 61 65 67 66 76 85 64 97 98 99 99 99 98 89 80 76
20 18 16 16 16 14 15 15 24 57 49 55 57 57 55 53 49 46 46 45 43 42 40 38 36 34 33 33 33 37 42 46 50 50 48 49 52 51 53 73 52 40 94 98 98 100 97 92 82
19 21 19 16 18 17 16 18 38 60 53 61 63 64 60 57 55 53 50 47 45 43 41 39 38 36 34 32 30 27 25 26 28 29 34 35 34 34 36 38 46 63 42 31 19 77 90 100 92
24 22 24 20 20 17 19 21 48 56 58 62 65 66 63 59 55 52 48 45 42 40 38 36 35 34 33 32 31 30 27 24 21 20 19 20 21 22 22 21 19 21 35 46 32 24 30 67 99
26 25 25 24 19 20 23 22 50 60 58 64 65 67 65 60 56 52 47 44 41 39 37 35 33 32 30 29 27 27 26 23 22 22 22 20 20 19 17 15 14 16 18 21 26 36 48 34 58
24 26 27 25 22 26 26 24 33 60 61 62 64 66 67 59 55 50 46 43 40 39 37 35 34 32 31 29 28 26 26 26 26 25 25 26 26 26 25 22 20 19 21 26 20 19 28 43 72
30 32 32 29 27 28 24 24 44 55 60 64 66 68 69 60 54 49 46 44 42 41 40 39 39 39 40 41 42 42 38 33 33 33 32 32 34 32 31 30 28 26 24 24 29 25 49 64 63
33 33 34 31 27 21 22 21 42 56 61 67 72 74 70 68 61 54 51 48 46 45 46 47 47 50 52 54 54 55 56 54 49 47 46 44 43 44 42 39 37 36 32 25 30 31 36 92 87
38 30 30 33 26 27 23 27 24 49 54 58 65 71 74 68 62 58 55 54 55 55 57 59 60 63 66 68 69 70 71 70 69 66 62 62 62 59 54 52 49 47 45 37 29 36 36 82 99
33 30 27 24 25 28 26 26 31 59 45 48 58 68 73 67 64 62 62 61 64 67 69 68 69 72 75 74 74 82 89 93 94 86 80 69 71 78 85 72 67 71 69 57 42 33 41 45 98
25 24 30 35 30 36 27 26 21 38 36 53 59 70 75 70 67 62 64 66 68 70 69 70 74 77 74 74 76 83 88 97 100 100 100 100 98 94 100 100 96 94 87 80 59 47 43 44 65
25 31 41 40 41 36 31 31 23 31 52 52 55 71 77 73 68 66 67 67 68 71 73 76 81 77 78 79 82 87 93 97 98 99 98 99 99 99 98 99 100 99 97 99 88 69 67 55 64
32 33 39 45 41 30 37 36 26 50 60 69 72 77 79 75 69 67 70 73 75 77 80 83 81 80 81 82 86 91 93 98 100 99 99 100 100 99 100 100 100 99 100 98 99 99 94 83 62
34 33 31 34 43 45 29 30 43 65 65 70 72 81 85 77 71 71 75 79 79 81 84 88 85 82 82 83 87 92 96 98 100 99 97 98 98 96 96 98 99 100 99 100 98 98 100 92 67
31 28 41 46 50 46 33 34 41 64 56 67 72 79 90 78 74 76 80 82 68 60 80 82 82 83 83 89 90 94 97 94 96 96 96 96 96 96 97 98 100 100 100 100 100 99 99 100 96
32 36 41 40 41 44 48 60 75 68 58 66 71 83 87 79 75 78 83 74 43 27 22 29 43 73 85 90 91 94 95 96 96 96 96 96 96 96 97 97 99 100 100 100 100 100 100 100 98
31 34 38 47 41 42 48 58 62 69 77 72 75 81 84 79 76 80 78 51 22 12 11 13 16 28 81 90 94 95 97 96 96 96 96 96 96 96 97 98 99 100 100 100 100 100 100 100 100

GFSSGP_850_rhum_141.txt.gz
RH
17 20 20 16 13 8 8 9 8 8 9 12 12 19 26 28 33 48 53 62 68 81 61 58 59 60 60 58 56 55 55 55 52 48 45 47 47 48 59 56 54 52 49 50 52 48 45 53 59
16 19 18 13 12 10 8 9 9 9 9 15 16 16 22 33 35 42 52 65 69 71 85 75 66 66 66 66 65 63 61 58 57 55 52 52 52 47 50 56 55 50 44 46 49 49 46 56 58
14 18 14 11 10 9 11 10 9 8 9 9 13 18 24 34 37 49 59 62 66 69 94 71 69 68 69 69 69 69 68 65 62 59 58 57 56 55 56 48 46 47 46 46 45 46 48 58 59
18 15 12 12 11 12 11 10 9 9 7 8 12 26 34 38 47 56 61 66 72 84 98 75 73 72 70 69 69 68 70 70 69 65 62 61 64 61 62 55 46 42 45 48 47 43 46 56 58
16 13 13 12 11 11 10 10 11 9 11 10 13 21 29 39 60 71 84 79 86 93 98 78 77 76 77 78 79 78 74 72 72 71 66 66 69 68 66 62 52 48 48 48 48 48 51 53 57
14 12 14 12 12 11 9 10 10 11 12 12 14 21 25 44 65 85 50 46 59 74 77 66 72 70 63 54 67 75 80 80 76 74 71 69 68 72 69 63 58 54 53 53 52 53 55 59 61
14 13 13 12 12 12 11 11 10 10 12 14 16 18 28 49 67 74 70 49 44 44 50 49 49 52 60 59 72 80 80 80 80 77 75 76 74 72 70 67 64 61 62 59 57 58 58 56 61
15 13 13 12 12 13 11 10 10 9 12 14 14 17 22 34 54 65 49 38 36 39 46 50 51 62 74 82 81 85 85 88 85 82 83 80 79 78 74 73 70 68 67 63 60 59 61 60 60
15 15 12 12 13 13 11 11 10 10 10 19 24 30 33 34 38 41 47 48 34 30 31 33 36 44 62 89 94 90 98 93 87 75 80 82 83 92 93 81 75 73 72 71 66 65 65 63 65
14 13 13 12 12 13 11 10 10 10 10 16 24 29 31 33 35 38 41 46 54 38 34 37 42 47 53 59 66 71 80 78 74 68 71 86 87 89 88 89 90 83 79 76 74 71 72 71 81
12 15 14 13 12 11 11 11 10 10 11 18 23 28 30 32 39 40 38 44 50 57 47 43 43 43 45 49 53 55 59 59 66 59 64 79 81 81 88 88 88 88 82 82 87 76 74 78 92
13 12 12 11 12 11 11 11 10 16 26 27 30 31 32 34 36 37 41 43 48 53 45 41 44 46 47 48 50 52 54 56 60 58 56 52 54 67 75 69 81 88 90 91 88 88 81 84 92
11 9 10 11 11 11 11 11 11 19 24 27 30 32 34 34 37 42 43 46 49 51 45 33 32 30 30 30 32 32 33 35 39 44 48 49 50 53 55 60 76 79 82 85 94 94 90 84 82
13 11 10 10 11 12 11 10 17 25 25 27 28 32 35 38 41 43 45 48 50 51 45 33 32 31 30 30 29 29 29 27 27 27 26 28 34 41 44 44 62 89 90 72 79 85 91 95 97
12 12 9 9 9 10 11 11 12 24 25 27 30 34 36 38 42 45 47 46 49 50 47 34 31 30 29 28 28 27 28 27 28 28 28 28 25 24 28 34 40 64 88 77 72 63 70 87 88
11 10 10 8 10 11 11 12 20 24 24 24 28 33 36 41 42 46 47 46 47 52 46 41 34 32 29 28 27 28 31 27 34 37 30 34 29 27 24 24 28 51 54 60 87 71 84 36 53
12 9 10 12 10 10 11 15 20 22 22 24 28 31 33 37 41 47 46 48 47 42 34 33 31 30 28 27 26 27 30 43 55 46 59 62 35 32 28 27 28 34 37 47 59 78 89 94 36
12 12 9 10 11 12 11 11 18 23 22 23 25 29 32 35 40 50 52 52 53 49 42 41 37 32 29 32 33 42 47 58 52 56 63 64 65 60 44 37 37 37 42 49 68 72 72 87 80
11 12 11 9 9 16 15 13 11 20 21 22 25 29 31 36 43 49 57 59 60 64 67 55 49 47 40 54 54 60 63 63 65 69 74 80 85 85 95 92 85 81 82 78 79 82 78 77 79
12 12 12 10 11 15 14 14 12 16 19 20 23 26 29 36 39 47 52 58 63 65 70 62 63 61 67 68 58 73 74 72 72 74 77 84 87 94 97 98 98 97 96 94 90 92 88 82 71
14 15 14 14 13 14 15 16 13 12 19 22 24 25 30 34 39 45 51 57 61 66 72 71 72 75 78 74 76 78 78 74 73 76 83 82 93 99 100 100 100 100 100 100 98 94 91 86 79
17 11 15 16 18 19 14 18 11 14 21 22 24 30 32 38 45 46 52 56 60 68 74 78 81 78 80 89 87 91 84 82 85 85 89 97 100 100 100 100 99 99 100 100 96 98 98 92 85
17 20 20 19 20 19 16 17 12 13 16 17 21 27 32 39 44 48 54 58 59 67 73 81 82 80 86 88 94 93 93 93 94 98 99 100 100 100 100 99 99 100 99 97 99 100 92 95 100
18 20 19 18 19 26 17 16 14 13 15 14 15 23 32 41 47 51 57 59 60 68 77 82 82 80 84 85 96 98 100 100 100 100 100 100 99 99 99 99 99 99 99 96 98 98 98 97 97
19 21 29 32 31 29 15 17 14 12 14 16 18 23 35 43 47 51 52 56 63 70 77 79 78 81 77 88 98 99 100 100 100 100 100 100 99 99 99 99 99 100 99 99 99 99 99 98 98
21 21 30 28 25 18 17 19 14 16 16 24 26 25 36 45 51 53 58 63 62 66 70 71 72 75 77 90 99 99 98 99 100 100 100 100 99 98 98 99 100 100 100 99 99 99 99 99 98
26 33 21 29 26 30 20 14 11 22 22 23 28 33 37 43 47 52 61 67 63 59 62 51 45 50 80 90 98 98 86 88 97 100 100 98 97 100 100 100 100 98 97 98 99 100 98 100 100
26 18 31 27 35 32 18 16 24 33 25 24 26 30 35 42 51 58 68 74 64 59 63 36 20 8 46 61 97 90 83 89 97 96 97 99 97 99 100 100 97 97 97 98 99 100 100 100 100
30 28 24 22 25 33 34 39 39 66 26 26 23 22 33 43 60 78 83 78 61 25 20 28 16 5 8 16 61 39 66 89 93 95 96 96 96 99 98 96 96 97 97 98 98 99 100 100 100
19 22 23 41 34 25 28 52 21 26 34 32 26 26 29 51 67 88 68 64 46 17 23 13 5 6 6 8 11 13 14 30 85 94 93 95 95 96 96 97 96 97 96 97 97 98 99 100 100

GFSSGP_850_rhum_144.txt.gz
RH
12 20 19 17 16 12 11 9 7 7 10 11 17 26 32 36 44 68 58 64 79 60 61 61 60 58 57 56 55 55 55 56 55 52 49 47 47 46 46 61 59 52 47 48 51 52 52 60 67
13 19 16 15 16 14 11 8 8 8 11 16 14 24 31 38 46 53 59 62 71 94 78 64 64 64 64 64 63 62 62 60 59 58 56 53 52 52 48 54 56 58 51 48 46 51 53 53 64
16 20 15 14 13 13 12 9 9 8 8 11 13 29 31 40 49 70 71 66 90 88 77 68 68 69 69 67 66 66 66 66 65 62 60 60 60 59 57 60 56 60 56 49 47 45 45 50 63
18 16 14 14 12 11 11 10 8 7 7 7 22 31 37 50 78 93 79 79 77 71 69 73 72 69 68 70 69 69 69 69 69 68 64 64 66 68 68 65 59 57 57 53 52 47 46 48 58
15 14 15 15 12 11 9 9 10 8 7 8 23 33 48 69 80 74 72 74 69 84 83 81 79 77 78 79 77 76 79 78 75 74 72 66 67 70 72 70 66 60 53 53 53 55 50 50 57
14 13 16 15 11 10 9 9 9 10 11 10 22 31 55 65 75 48 70 69 78 84 88 80 78 67 58 58 62 63 67 75 79 78 75 72 70 70 72 72 70 64 58 56 54 53 54 55 58
14 14 16 13 12 12 10 10 9 10 11 14 19 30 47 62 74 82 48 49 57 59 62 56 52 45 47 49 62 64 70 77 84 82 77 72 71 72 72 72 71 68 62 62 59 58 56 58 57
14 13 14 13 12 12 10 10 10 9 13 15 22 23 36 58 67 55 41 33 32 36 40 41 41 42 51 50 64 81 83 84 81 82 75 83 82 74 79 82 75 71 68 67 65 62 61 59 58
14 16 14 11 10 12 11 10 10 10 16 24 28 30 33 40 42 44 46 40 30 24 24 25 28 33 46 52 68 75 79 74 64 69 59 66 86 93 91 88 88 85 78 76 73 72 69 67 61
13 14 12 12 12 12 11 10 10 10 15 22 26 29 30 32 36 38 42 46 39 28 24 27 33 37 40 40 50 52 54 48 55 44 47 48 68 80 87 89 88 88 81 83 75 76 71 69 68
11 14 13 12 12 11 10 10 10 10 16 19 25 27 30 34 38 37 37 44 49 44 34 34 36 38 39 38 40 40 42 44 44 48 43 43 43 39 54 62 77 90 91 88 82 84 81 81 73
10 10 12 11 12 11 12 11 11 21 24 26 27 29 30 33 34 37 40 44 48 47 34 31 29 28 26 26 26 27 28 28 29 30 32 32 34 37 36 36 42 50 74 91 93 91 88 88 85
10 8 9 11 11 11 11 11 11 18 22 24 26 28 30 32 36 40 42 46 48 50 36 29 27 26 26 25 25 25 25 24 25 26 26 25 23 23 26 33 38 43 85 84 74 75 90 91 92
11 11 9 9 9 10 11 10 15 20 22 24 25 29 33 35 37 41 44 48 49 52 43 34 30 26 25 24 24 24 24 24 25 27 27 26 26 25 24 23 23 32 48 88 95 79 53 61 65
11 11 8 8 8 9 10 11 14 21 21 22 25 28 31 35 40 44 46 45 50 52 44 33 29 26 26 26 26 26 27 27 28 34 32 33 34 27 29 28 27 26 34 39 73 74 87 73 40
10 10 12 7 8 10 11 12 17 21 21 22 25 29 32 36 40 44 45 46 49 48 40 35 31 29 29 28 27 26 30 28 38 42 38 51 58 36 32 28 28 29 29 30 37 46 79 86 83
11 12 10 10 9 9 11 15 18 20 20 21 24 28 32 36 40 46 48 50 51 39 35 33 32 30 29 26 24 24 24 27 31 37 45 66 67 64 61 47 36 33 33 34 34 31 48 74 93
11 13 10 9 11 10 10 11 18 20 19 20 23 26 29 32 39 48 53 46 48 37 35 34 32 29 27 26 25 26 26 28 32 38 49 65 72 83 84 89 77 58 53 51 56 69 55 58 69
12 12 12 9 10 12 13 13 10 19 18 19 22 24 28 32 40 47 55 57 57 52 45 39 35 34 32 31 35 35 39 42 44 50 66 74 79 82 87 93 94 93 86 85 87 76 75 60 56
14 13 12 9 8 10 13 13 10 14 19 19 21 24 27 34 39 45 50 58 63 64 58 48 47 45 41 42 50 55 54 55 64 71 71 74 77 82 88 94 98 99 98 95 92 98 96 86 76
15 15 13 12 10 12 15 16 14 11 17 18 19 22 25 31 35 43 48 56 61 65 63 54 52 63 63 56 56 55 59 65 71 72 79 83 82 86 90 98 98 98 98 98 98 98 99 99 96
23 14 12 12 15 18 11 20 12 16 18 18 20 23 28 34 38 41 47 53 59 63 69 67 71 76 76 64 49 68 77 83 87 91 93 93 97 99 99 99 99 98 99 99 98 100 97 97 98
25 16 16 15 19 21 17 18 13 10 20 22 22 26 29 34 38 42 49 54 56 65 73 78 78 78 76 44 60 62 69 76 81 91 99 98 98 99 98 99 99 99 99 98 97 98 98 99 99
15 19 20 19 21 30 18 17 16 14 16 18 19 25 30 38 44 46 52 55 56 65 76 80 77 79 74 34 64 61 69 82 84 96 100 100 97 96 96 98 98 98 100 98 99 98 98 98 99
19 23 32 35 34 34 16 17 15 13 14 16 19 22 31 38 41 46 49 50 58 67 75 70 69 74 65 34 60 52 54 78 83 98 100 100 96 95 96 98 99 99 100 100 100 100 100 99 98
22 22 34 31 33 25 15 20 20 15 15 16 16 22 32 39 43 47 49 57 59 63 65 63 56 60 37 43 53 37 40 75 82 92 99 100 97 97 98 98 99 100 100 100 98 100 100 100 99
21 28 19 30 30 37 27 18 20 19 23 22 23 24 33 38 44 48 54 64 62 59 63 48 42 30 23 51 40 18 39 62 82 88 96 96 95 97 98 98 100 99 99 100 99 99 99 99 99
21 19 40 38 43 41 24 17 53 32 27 26 26 29 30 33 40 47 57 67 63 62 65 38 38 14 12 22 23 9 17 44 78 85 94 96 96 95 95 98 97 97 97 98 98 99 99 100 99
28 34 28 27 31 36 39 62 61 51 30 30 26 21 24 31 43 54 65 72 69 60 37 21 24 6 6 7 8 7 9 13 38 70 93 95 96 95 96 96 97 96 96 97 98 98 98 99 99
21 30 29 52 34 32 35 52 30 44 41 32 28 24 25 37 54 64 70 68 62 46 26 26 8 5 5 6 6 6 7 12 17 23 51 74 90 94 95 96 96 96 96 97 97 97 97 98 98

GFSSGP_850_rhum_150.txt.gz
RH
14 18 18 19 24 30 27 19 16 22 49 57 58 70 87 85 79 96 82 68 52 74 64 58 58 54 54 54 54 55 56 57 56 56 52 48 48 49 48 45 48 48 47 44 49 53 50 48 47
15 17 18 18 32 32 25 17 32 46 50 54 58 63 75 94 97 98 98 100 93 77 70 63 65 63 61 60 60 61 61 60 60 60 59 57 54 52 52 53 53 52 52 48 45 45 51 51 49
16 16 18 31 36 29 23 14 21 38 38 37 56 79 87 98 100 99 100 100 81 69 67 74 74 70 67 65 64 64 65 66 65 64 63 62 62 61 57 54 54 57 56 56 51 50 45 48 51
17 18 21 27 24 21 17 13 11 36 36 51 70 84 99 99 97 100 100 98 88 82 78 77 72 69 69 72 71 66 63 62 68 71 71 69 66 63 64 64 61 60 60 53 53 53 53 48 47
18 18 29 31 25 18 13 12 10 30 50 64 68 91 97 100 100 99 100 89 67 71 75 76 78 73 59 54 50 46 48 50 57 67 75 77 75 71 67 67 68 68 64 64 61 53 51 53 53
18 21 32 32 22 16 14 11 37 54 66 68 74 87 100 98 100 100 100 88 68 59 64 60 55 47 40 37 37 38 43 51 62 73 80 81 80 78 76 72 73 73 72 72 69 65 64 62 63
20 28 29 26 25 19 14 18 26 33 45 56 59 79 99 82 79 84 77 75 63 58 63 55 52 50 44 35 30 30 30 43 61 72 79 73 66 75 81 80 80 76 74 74 75 74 70 70 66
16 25 24 24 22 20 13 13 23 30 31 50 50 79 88 73 50 45 42 38 36 36 36 38 39 44 40 37 39 40 38 41 50 53 52 53 49 58 77 85 85 82 81 82 80 79 77 76 75
14 26 31 24 18 16 12 23 30 30 32 41 51 66 68 57 46 36 26 22 23 24 28 32 34 37 39 41 42 43 42 39 35 35 36 38 37 38 47 66 81 87 87 88 90 92 87 84 83
18 29 23 19 14 14 13 17 25 35 44 52 64 67 54 49 45 39 31 23 21 22 26 30 32 32 33 32 31 29 29 28 26 25 25 25 26 28 30 33 35 46 65 82 89 92 94 95 89
17 23 20 14 13 13 16 23 26 36 40 47 68 64 55 43 40 37 30 25 23 24 26 27 26 25 24 23 22 22 22 22 22 21 21 20 20 20 21 21 22 26 31 33 40 69 91 97 96
14 14 12 13 12 12 14 23 30 30 33 46 57 47 39 38 37 33 27 29 29 27 26 26 25 24 22 21 20 20 20 20 20 20 20 19 19 18 18 18 19 20 21 22 32 40 56 75 87
12 13 11 11 11 12 13 26 31 34 34 36 37 36 35 34 34 37 35 36 35 30 27 26 25 22 22 22 22 22 22 21 20 19 19 18 17 17 17 17 18 20 21 22 22 26 45 63 69
13 12 12 11 12 11 26 30 26 31 32 32 32 33 34 35 38 41 40 35 33 30 26 27 25 24 26 25 23 20 18 17 18 18 18 18 17 16 16 16 16 17 17 18 23 24 26 32 62
14 14 13 11 11 13 21 26 28 29 30 32 34 37 39 40 42 39 37 33 32 28 26 26 27 27 26 22 19 19 20 21 21 22 25 26 28 27 26 24 20 20 20 20 20 22 27 28 30
16 16 18 13 12 11 13 21 28 28 28 34 36 38 39 43 41 38 37 34 31 29 28 29 30 28 24 21 21 22 23 23 24 26 32 36 41 44 45 46 44 40 35 33 31 28 27 31 31
23 22 21 18 12 14 15 22 29 29 31 36 37 38 39 43 44 42 40 37 35 34 33 32 31 27 24 23 24 24 25 26 29 33 34 38 41 44 47 50 51 52 54 54 50 46 43 37 35
29 25 21 17 13 16 21 27 29 28 31 36 40 41 40 42 42 40 34 34 34 34 34 32 29 26 24 24 25 26 26 28 30 33 40 42 44 47 47 49 55 60 61 61 62 61 57 56 51
24 26 23 15 14 16 20 30 30 27 30 37 42 43 41 42 41 39 35 33 34 37 36 33 29 26 26 24 24 24 28 30 27 29 21 21 44 48 48 54 63 73 79 82 92 90 73 57 63
31 30 23 16 14 15 19 26 30 28 28 32 40 45 39 43 43 42 37 38 40 38 36 36 32 31 31 30 31 31 32 30 21 17 12 15 35 52 56 62 73 82 87 92 95 95 100 98 96
30 24 22 20 16 15 20 23 22 27 25 29 37 40 35 37 41 42 40 37 38 40 42 42 37 35 34 34 39 32 25 20 16 11 13 25 57 63 68 73 81 84 87 93 100 99 99 98 99
31 21 20 20 22 26 20 34 24 21 29 30 35 44 39 39 40 40 38 39 40 41 47 47 44 41 38 35 38 36 14 10 10 11 20 42 65 68 76 80 85 83 94 99 99 99 100 99 99
30 26 27 21 24 28 26 29 30 19 28 30 37 44 43 38 36 38 40 41 42 45 48 47 47 42 39 37 40 26 7 8 10 16 25 53 72 80 83 86 86 88 96 100 100 99 100 100 100
27 23 28 30 31 42 31 28 24 22 24 33 39 43 43 39 41 42 44 44 44 46 47 54 49 43 39 39 38 16 7 7 7 11 26 55 75 88 87 89 88 90 95 100 100 99 99 100 100
25 32 50 47 48 49 29 29 26 24 22 36 42 46 42 40 42 44 40 47 48 47 56 55 48 44 39 40 36 9 7 6 6 14 33 58 78 89 92 92 92 92 93 98 100 100 98 99 100
32 36 60 79 66 47 29 36 28 31 30 28 40 45 41 42 42 41 38 50 51 51 57 52 46 42 39 41 24 7 6 5 5 13 27 51 74 89 96 97 95 92 92 96 97 97 98 98 99
35 42 32 53 45 53 44 30 26 36 46 44 49 48 47 42 42 39 44 53 47 48 52 47 46 40 39 40 9 6 5 4 5 10 10 24 48 81 91 93 89 90 93 96 95 98 97 97 98
35 30 48 73 81 60 45 39 56 40 55 53 52 51 47 44 42 42 49 47 46 52 50 48 48 37 38 19 6 5 5 4 7 8 7 8 15 50 87 87 90 94 94 96 96 95 96 97 97
35 47 46 48 58 61 65 69 62 56 49 53 50 43 39 42 43 44 48 47 50 55 51 51 45 36 32 11 5 5 4 4 6 7 5 7 7 18 61 68 69 84 94 96 96 96 96 96 96
32 36 49 86 76 52 59 69 44 53 53 40 40 36 40 42 44 48 49 51 55 56 55 53 45 38 23 7 5 5 4 4 5 5 5 5 6 10 18 18 10 10 25 87 95 95 96 95 95

GFSSGP_850_rhum_156.txt.gz
RH
17 17 18 21 25 30 27 23 19 64 75 75 61 63 81 98 79 79 99 100 97 85 71 65 63 53 51 54 54 54 54 55 56 58 58 58 60 63 62 57 59 59 60 60 55 55 54 53 52
17 16 19 20 30 28 27 22 25 59 85 80 77 81 86 95 95 89 99 99 98 99 78 65 65 58 59 58 57 59 61 61 62 62 62 64 65 68 71 73 70 67 68 66 61 60 59 55 54
16 16 18 36 41 30 26 20 71 82 65 68 88 90 95 98 85 98 98 95 98 96 82 73 70 62 64 61 63 64 66 67 68 68 69 69 68 70 73 75 79 76 73 73 70 67 65 60 57
16 17 21 29 28 25 20 34 72 76 72 72 85 95 93 100 95 100 100 100 99 97 92 80 65 67 67 66 68 68 57 53 56 60 63 69 76 76 75 74 75 77 78 81 79 78 73 69 62
17 19 33 32 29 24 20 38 69 58 76 85 81 95 99 100 100 94 100 100 99 90 80 73 77 76 73 64 53 45 43 48 52 56 60 67 75 82 83 81 78 78 78 78 78 82 83 79 73
18 23 35 34 29 24 21 36 48 67 83 86 87 93 100 99 100 94 100 100 99 98 96 90 85 78 55 45 40 36 42 47 51 54 57 60 65 67 73 80 83 84 81 79 80 82 83 84 86
23 30 32 30 29 25 21 40 54 73 82 86 83 87 100 100 100 100 100 98 96 97 96 87 69 48 40 36 34 36 36 40 43 45 45 46 48 49 52 61 70 80 85 85 85 86 85 82 83
18 31 30 30 28 24 19 30 47 55 64 82 80 95 98 99 100 100 100 90 74 85 80 68 56 47 38 32 32 31 32 35 34 32 32 33 35 37 38 40 47 59 74 85 91 92 91 89 88
18 28 36 27 26 20 23 32 39 44 69 70 77 89 90 98 100 100 98 91 87 78 69 55 42 34 34 34 32 29 27 25 24 22 21 20 20 20 21 22 23 25 28 32 39 56 75 86 94
21 31 28 24 20 17 22 30 41 54 74 92 91 90 96 98 96 87 74 61 49 41 37 35 32 32 32 29 24 22 20 19 18 17 17 17 16 16 16 17 17 18 19 20 21 25 32 44 56
22 25 23 19 17 15 23 31 36 55 60 80 92 94 92 75 56 44 38 34 32 32 31 30 29 26 25 23 21 19 18 17 16 15 14 13 13 12 12 12 12 12 13 14 15 16 18 21 25
19 17 18 16 16 17 27 30 42 36 43 55 72 74 62 50 43 35 29 27 27 27 27 26 25 24 22 21 20 19 17 15 14 13 14 13 13 13 13 12 12 13 12 12 12 12 12 14 16
18 15 14 14 14 15 26 34 39 62 68 64 68 58 52 48 42 35 31 30 29 29 27 26 25 24 23 22 19 16 15 15 16 16 15 15 13 12 13 15 16 16 17 17 15 14 13 12 12
16 18 17 13 14 22 29 37 33 59 72 72 61 56 51 46 40 37 34 31 32 29 27 26 26 24 22 20 17 16 17 17 18 18 17 16 18 20 20 20 20 20 21 22 22 23 22 20 18
17 20 18 15 13 17 28 36 36 54 68 63 58 52 48 44 41 36 34 33 32 29 26 26 25 24 21 19 18 18 18 19 20 19 19 21 24 21 20 22 22 23 20 21 24 25 27 27 25
20 19 24 18 15 15 22 26 41 55 61 58 53 47 46 46 41 40 37 35 33 29 28 27 26 24 22 20 20 21 22 21 22 21 22 26 24 21 23 22 21 19 22 28 30 35 35 35 35
28 31 25 22 16 19 23 23 41 49 56 55 49 46 47 47 48 44 39 38 34 32 30 29 27 25 24 24 24 24 23 23 22 22 25 26 17 20 21 18 15 22 30 38 45 51 54 54 52
34 31 26 22 15 17 21 24 42 47 49 51 49 47 47 46 44 43 41 40 36 34 32 31 29 27 27 26 26 26 25 24 22 23 22 17 10 11 10 11 22 32 46 54 58 62 65 69 73
27 26 27 24 19 18 21 22 32 44 45 52 54 49 48 46 45 43 42 39 37 36 32 30 30 30 30 30 28 26 25 23 23 17 14 11 8 6 8 19 36 49 60 66 70 75 81 84 98
39 40 39 34 29 23 24 24 29 44 43 46 50 52 49 46 48 46 44 41 42 35 34 31 31 30 31 30 28 26 26 25 17 12 13 8 6 8 15 26 47 62 65 68 74 82 94 99 90
46 45 42 39 28 21 21 25 38 41 39 41 45 52 52 45 47 46 45 43 41 38 32 31 30 30 29 29 28 28 28 25 10 14 12 6 5 6 11 34 58 64 70 73 79 94 98 99 90
54 38 36 38 34 42 22 32 24 39 42 41 43 49 50 47 45 43 44 44 41 38 35 32 29 28 29 32 32 30 32 22 11 15 8 4 4 5 12 53 60 64 70 75 82 92 96 100 100
54 37 39 40 34 30 28 34 30 29 42 40 41 46 45 44 44 42 41 41 41 41 36 33 30 31 33 34 32 30 33 18 8 7 5 4 4 5 11 43 57 70 71 80 84 85 92 97 100
38 38 31 34 38 49 37 33 30 28 26 27 35 41 46 49 47 41 42 47 46 47 41 35 32 34 33 32 32 31 34 11 5 5 4 4 3 4 10 26 53 77 76 78 82 84 90 94 97
43 38 60 55 55 55 34 34 28 24 22 24 32 38 45 47 50 44 45 52 49 44 40 38 37 36 34 34 33 35 29 7 5 5 4 4 3 4 7 16 39 71 80 79 81 84 91 95 96
51 39 67 73 68 58 37 49 40 32 43 38 29 33 45 51 54 44 45 45 47 42 41 42 40 38 37 37 36 36 21 7 5 4 4 4 3 5 6 7 14 31 67 75 78 83 90 93 96
60 57 45 66 90 89 56 40 31 47 48 52 47 43 52 56 59 47 48 44 48 43 43 42 43 42 41 40 37 33 15 7 5 4 4 4 4 5 5 4 4 4 20 49 74 82 88 92 95
52 46 71 98 97 95 82 68 54 43 50 60 63 62 62 63 62 51 45 46 49 45 48 49 51 47 44 43 38 25 11 6 5 4 4 4 4 5 5 4 3 3 6 19 47 60 85 94 96
79 78 94 93 99 93 94 79 60 52 50 62 67 62 61 60 57 46 45 46 46 46 50 53 52 50 47 43 36 20 12 6 5 4 4 4 4 6 5 4 3 3 4 6 13 19 49 81 92
65 86 97 99 99 99 97 88 49 60 62 62 61 59 56 52 51 44 43 43 47 50 52 54 54 51 50 43 32 21 12 5 4 4 4 4 5 7 8 5 4 4 4 5 7 10 12 20 53

GFSSGP_850_rhum_159.txt.gz
RH
18 16 18 21 18 20 21 18 23 55 57 70 49 52 54 86 63 65 100 100 95 81 66 63 61 62 62 57 56 56 58 61 62 61 62 62 65 67 65 61 62 70 76 69 62 60 59 54 52
17 17 19 20 19 18 18 19 34 52 72 71 75 75 76 90 88 100 100 100 89 77 65 64 70 66 61 57 59 60 62 63 64 65 67 67 70 79 81 79 74 71 81 76 73 72 72 67 58
17 17 19 23 26 20 19 18 45 77 73 67 81 92 87 93 94 98 99 96 90 94 78 76 73 72 68 64 63 62 64 66 68 70 72 71 72 72 76 78 80 78 76 76 76 76 74 72 69
17 18 21 20 21 22 19 45 69 72 76 80 79 84 97 100 97 96 100 99 99 99 89 82 81 79 75 69 68 62 48 45 52 60 65 68 72 77 78 78 79 82 84 84 83 81 79 75 71
17 19 23 26 24 21 19 51 69 56 73 77 77 89 98 100 97 98 92 98 98 96 92 84 88 87 78 70 48 39 39 38 40 46 55 64 72 78 81 84 85 83 81 82 84 84 84 81 77
18 23 24 22 24 21 20 61 65 65 78 83 80 80 100 99 100 99 99 98 98 99 94 93 92 88 73 54 41 33 33 34 39 44 46 50 54 55 56 60 67 76 82 84 86 86 85 85 84
21 24 26 26 24 22 19 50 56 64 74 75 82 78 99 100 99 99 98 99 100 100 100 94 86 69 54 42 34 33 32 33 34 35 36 34 34 34 35 38 43 53 63 70 77 82 86 89 88
19 21 27 26 22 21 34 44 61 66 70 85 84 78 96 98 100 100 100 99 98 98 96 86 71 58 42 33 31 29 28 28 28 27 26 24 24 23 23 23 24 25 26 28 33 46 61 77 88
18 21 26 24 24 20 26 36 46 60 79 80 79 88 85 98 100 100 100 100 86 89 80 71 61 47 38 32 28 24 22 21 20 19 18 18 17 17 16 16 16 17 18 18 19 21 25 29 40
17 22 22 20 20 16 23 36 47 67 79 80 81 89 89 98 99 97 100 92 83 78 70 56 48 40 34 28 23 20 19 18 17 16 15 14 13 12 12 12 12 12 12 13 14 15 16 18 19
22 19 20 18 19 16 21 33 43 59 70 70 76 89 100 97 99 99 90 77 66 51 42 40 38 32 26 22 20 18 17 16 14 13 13 13 13 12 11 11 10 10 10 11 11 11 12 11 12
19 18 19 16 17 18 24 33 42 55 50 53 57 74 100 100 100 94 77 65 40 34 33 32 29 25 22 20 18 18 16 14 14 13 14 14 13 12 11 11 11 12 12 13 13 13 13 13 13
18 16 16 15 15 17 26 32 37 54 48 55 61 84 99 94 82 62 42 32 30 30 29 27 25 23 21 20 18 16 15 15 14 16 16 15 13 12 14 17 19 21 21 21 19 17 16 17 17
19 19 18 16 16 27 27 36 38 64 70 74 76 88 88 70 50 36 32 29 29 28 27 26 24 23 21 19 17 16 16 17 17 18 17 16 17 20 22 23 24 23 20 12 10 12 15 16 16
20 21 17 16 15 18 30 36 33 54 80 77 76 75 62 46 40 35 32 30 29 28 26 25 24 23 21 19 18 18 18 19 20 19 17 18 22 22 22 24 19 9 6 9 19 30 34 35 32
24 22 25 18 15 16 23 20 30 59 70 68 68 65 54 49 42 38 35 32 30 28 27 26 26 24 22 21 20 20 20 21 21 19 18 21 22 17 17 12 5 5 20 35 42 44 46 48 49
30 34 27 21 16 20 24 18 25 59 64 63 63 62 60 52 46 43 38 34 31 30 28 28 27 25 24 22 22 23 23 23 21 19 21 22 16 11 8 5 5 26 32 44 50 53 58 58 58
42 33 27 26 17 19 25 22 35 55 60 59 59 60 62 52 49 45 41 38 34 31 30 29 26 25 24 24 25 25 24 24 20 20 18 17 12 7 4 5 15 35 41 52 57 59 60 62 67
31 29 27 22 18 20 19 18 17 45 56 57 57 59 58 57 49 48 45 40 37 34 32 30 29 28 26 27 27 27 26 23 22 17 18 17 8 5 4 8 30 34 49 57 62 66 66 64 81
40 45 45 33 27 28 26 25 19 36 46 52 55 56 57 60 51 52 48 43 38 33 33 33 31 29 28 30 29 28 26 22 23 14 19 11 5 5 6 12 32 38 53 57 62 66 72 76 86
50 52 49 45 34 28 26 28 23 31 36 44 52 54 56 58 56 54 50 44 41 38 34 34 31 31 31 31 30 28 24 26 15 14 12 5 4 4 5 12 21 47 60 60 66 72 78 94 93
68 48 48 48 45 54 24 33 23 27 38 41 45 52 56 57 52 49 47 44 42 39 37 34 33 32 31 30 29 29 28 26 11 8 7 5 4 4 6 10 18 52 60 63 69 74 78 83 94
56 42 43 42 44 43 37 34 25 22 34 39 41 49 53 50 49 49 46 41 40 41 38 35 34 33 29 30 31 31 30 25 10 6 5 5 4 4 5 6 9 33 62 59 71 71 76 82 93
41 42 38 36 41 55 41 35 29 24 24 32 35 42 48 52 52 49 43 41 43 45 41 36 36 33 32 34 32 31 31 26 11 6 5 4 4 4 4 4 4 11 28 40 64 70 77 81 86
47 52 92 78 61 59 33 36 29 23 21 22 30 36 44 52 55 58 45 45 47 44 41 39 38 37 38 35 34 34 31 27 13 6 5 4 4 4 3 3 3 4 9 26 44 55 72 80 84
65 62 81 80 58 47 36 38 27 30 35 38 29 31 40 53 57 59 44 41 44 41 39 39 39 42 40 39 37 34 31 26 15 7 5 4 4 4 4 3 3 4 7 14 29 34 56 77 87
62 77 53 84 80 78 46 35 28 37 35 41 40 40 46 55 59 62 48 44 43 42 40 41 42 44 44 42 39 36 31 25 17 7 5 4 4 4 4 3 3 4 5 9 16 17 35 46 80
54 51 81 95 96 88 55 58 48 38 34 42 49 48 54 58 63 70 58 49 46 45 43 45 46 49 46 44 42 37 31 26 15 6 5 5 4 5 4 4 4 4 4 6 8 9 12 17 62
61 73 93 94 93 65 60 68 56 52 46 43 46 55 61 65 71 71 64 51 47 48 46 46 50 50 48 46 43 38 31 26 11 5 5 5 5 6 6 4 4 4 4 5 7 8 9 10 23
67 80 92 98 99 94 73 69 46 53 55 52 46 56 63 68 74 69 62 51 50 46 48 48 54 53 50 48 44 38 31 21 8 5 5 5 6 7 8 5 4 5 5 5 6 7 7 7 8

GFSSGP_850_rhum_162.txt.gz
RH
18 16 18 23 15 10 8 9 17 26 32 34 31 31 29 52 32 51 100 100 98 87 79 72 66 62 62 63 62 61 58 60 62 61 61 62 66 69 72 92 88 82 78 76 68 63 59 58 59
17 17 20 15 12 9 6 10 16 24 32 39 47 48 43 57 79 100 99 100 97 73 75 74 72 66 69 69 66 65 64 64 64 61 63 64 68 78 85 85 84 89 82 80 76 72 69 66 65
17 17 16 12 10 9 8 12 16 40 48 43 50 55 55 73 96 98 99 100 94 76 72 70 69 73 77 74 73 71 68 70 68 70 69 68 70 73 77 80 81 83 82 78 80 80 77 68 63
19 18 16 13 10 10 12 14 26 45 50 44 41 56 93 99 97 97 99 96 91 78 76 70 76 82 80 79 78 75 69 58 51 50 50 57 64 70 77 80 83 83 85 86 86 85 82 78 74
18 15 12 13 10 11 13 17 33 40 44 51 48 64 95 99 97 96 95 97 91 91 89 80 85 84 82 82 69 58 48 41 40 46 48 49 54 59 64 70 76 81 82 82 82 80 81 82 80
13 15 13 11 10 13 13 20 35 34 44 48 52 61 97 99 97 99 100 90 85 95 94 90 92 89 83 66 55 43 33 30 32 36 39 39 39 39 39 43 46 50 55 62 68 74 81 85 83
13 13 12 12 11 14 13 22 34 34 46 52 49 53 97 99 98 93 93 96 97 99 98 98 97 91 74 54 44 36 34 31 29 29 29 28 27 26 25 26 26 28 29 32 38 47 58 69 78
15 13 12 12 11 11 15 31 37 38 39 57 57 46 70 97 99 98 100 99 98 98 99 94 85 72 58 45 38 35 30 27 25 23 20 19 18 17 17 16 16 16 17 17 18 19 21 22 24
16 12 12 12 14 10 22 31 42 46 51 61 66 65 79 83 99 100 100 100 99 100 97 88 74 60 48 39 32 27 23 20 18 18 16 15 14 13 12 12 11 11 11 12 12 13 14 15 16
13 12 10 12 12 12 15 21 35 48 48 58 71 84 87 98 99 99 99 99 97 94 85 75 63 50 41 31 24 21 19 17 16 14 13 12 12 12 11 11 10 10 10 10 10 11 11 11 12
12 13 9 12 13 14 12 16 24 36 36 44 55 79 90 100 100 100 98 94 84 85 76 64 48 40 31 25 22 19 17 15 14 13 13 13 12 12 11 10 9 9 9 10 10 11 11 12 12
16 12 12 12 13 13 12 14 26 29 28 43 49 72 84 94 97 99 84 72 72 69 54 43 37 30 26 22 19 17 15 14 14 13 14 14 12 11 10 11 13 14 16 15 14 13 12 12 12
16 14 13 13 13 13 13 16 18 26 37 50 56 73 81 90 91 83 74 65 65 52 38 33 29 26 22 20 18 16 15 14 14 14 14 13 11 11 14 17 19 18 10 9 17 19 18 18 19
15 16 15 14 13 13 14 14 27 24 48 53 64 70 78 87 84 73 66 61 59 39 31 28 25 22 20 18 17 16 15 15 16 16 15 13 14 17 18 19 16 8 7 21 18 24 28 31 34
20 20 16 14 14 12 17 18 24 22 51 51 60 65 72 75 72 67 62 56 43 34 26 24 23 21 19 18 16 16 16 17 18 18 15 15 19 17 16 13 6 5 22 17 17 24 37 43 49
24 21 24 13 14 13 17 16 12 27 45 46 52 61 66 66 63 63 56 47 35 30 25 25 23 21 19 18 18 18 19 20 20 17 15 18 18 15 12 5 4 7 21 16 16 25 39 51 65
24 24 18 17 14 13 16 16 11 29 39 37 47 54 60 60 60 52 53 46 40 30 27 25 24 22 20 20 20 20 21 22 20 16 18 19 18 12 6 4 4 11 15 14 25 40 55 64 81
22 22 22 19 13 16 16 17 12 25 33 32 39 46 54 56 52 51 55 53 49 46 30 27 26 23 21 21 22 22 24 23 19 18 18 20 16 7 4 4 5 8 13 33 43 47 54 78 92
22 25 25 19 14 18 18 17 16 20 30 30 33 41 47 50 48 54 58 59 56 46 32 30 27 24 23 24 25 26 26 23 19 19 18 19 9 5 4 4 5 9 36 46 51 59 69 69 88
32 34 34 27 25 28 26 22 17 13 22 24 29 37 43 48 49 56 60 64 60 43 35 32 29 26 26 26 27 28 26 22 22 16 18 13 6 4 4 4 6 22 47 45 49 55 57 78 97
42 41 38 36 31 29 31 32 26 19 15 20 24 31 39 44 48 56 61 64 64 54 40 33 30 28 27 26 27 28 26 23 22 14 12 8 5 4 4 6 7 18 47 41 36 58 65 84 90
51 35 40 42 42 45 26 36 21 18 21 20 22 32 39 43 48 54 60 63 63 61 46 40 32 29 27 28 30 29 37 36 22 9 8 6 5 4 5 4 5 8 22 26 40 58 51 78 89
47 38 40 43 44 43 39 43 31 21 19 19 21 30 43 44 47 52 57 59 61 63 61 40 33 31 29 29 29 29 28 26 20 8 6 5 5 5 4 4 4 4 10 17 32 30 38 78 95
39 45 45 42 45 58 40 36 30 22 19 17 20 24 39 48 48 50 55 58 59 67 62 42 34 32 30 30 29 29 28 26 18 8 17 6 6 5 4 4 4 5 8 14 18 17 47 69 84
49 66 98 93 75 60 29 33 31 20 17 16 18 25 33 45 48 51 56 59 62 68 70 42 34 32 31 30 31 31 29 25 16 11 9 6 6 5 4 4 4 4 6 10 12 21 62 61 62
57 71 73 73 59 41 30 41 27 21 18 17 16 22 30 41 49 52 56 60 64 71 52 38 34 34 34 32 33 33 30 24 16 11 8 6 5 5 4 4 4 4 5 7 9 38 37 43 59
63 78 56 81 75 70 35 27 21 22 24 24 25 28 30 39 47 52 59 64 68 59 45 38 38 39 37 35 37 35 31 22 18 16 10 6 5 5 4 4 4 4 4 5 6 20 12 41 66
56 58 94 97 98 89 43 36 35 32 27 26 30 31 32 40 48 54 61 67 67 48 42 40 36 41 37 39 40 37 30 25 22 19 10 5 5 5 5 4 4 4 5 5 7 12 8 14 64
57 74 90 96 84 82 60 52 40 40 35 32 28 36 40 43 48 55 62 66 74 66 49 45 43 42 39 42 43 39 33 28 27 18 8 5 5 6 6 5 5 5 5 5 6 7 7 8 20
74 87 87 100 100 88 63 63 37 40 40 34 30 36 42 46 49 58 68 76 76 64 53 42 40 40 41 44 45 40 34 32 24 14 7 5 6 6 7 6 5 5 6 6 6 6 6 7 7

GFSSGP_850_rhum_165.txt.gz
RH
19 22 22 20 14 10 7 5 5 12 15 17 17 16 18 38 28 57 99 92 99 96 94 66 60 55 57 58 58 62 60 60 60 60 61 64 64 65 64 70 72 74 73 75 72 64 62 63 59
18 19 19 15 12 8 6 4 9 8 15 25 26 31 28 44 80 99 98 100 90 97 98 70 60 57 60 61 64 68 64 63 64 65 67 70 75 77 80 80 80 80 80 79 77 74 68 65 65
17 18 15 12 10 9 6 8 7 15 29 23 30 31 37 59 99 98 99 100 98 100 83 62 61 64 66 68 73 72 71 72 73 73 71 72 74 76 78 80 82 84 83 84 84 82 79 76 70
15 14 13 11 8 6 7 7 8 21 28 26 28 45 74 90 90 99 98 100 98 95 86 73 72 78 78 79 80 80 80 75 67 70 64 58 57 59 67 72 75 77 80 82 81 81 82 82 80
13 12 11 10 10 7 7 8 12 21 25 27 26 44 76 96 99 98 98 98 98 88 84 82 84 84 83 86 84 76 63 58 56 55 47 43 41 43 46 51 55 61 63 65 70 76 80 82 83
10 10 12 10 7 6 8 9 14 20 23 26 28 36 81 99 98 100 99 99 98 90 95 90 90 86 86 82 69 60 51 49 47 40 35 32 31 31 31 31 30 30 30 35 38 43 50 59 68
10 9 11 10 8 7 8 9 13 19 20 24 30 33 84 99 97 99 99 100 100 100 100 99 95 91 82 66 53 44 42 40 34 30 27 24 21 19 18 17 17 17 17 17 18 18 18 19 20
11 8 10 8 8 8 7 10 12 19 19 27 35 34 52 93 99 98 100 98 93 99 99 100 95 89 75 55 46 40 35 30 25 22 19 17 16 15 14 13 13 12 12 12 12 12 13 14 15
11 11 9 7 7 8 10 13 13 22 24 40 43 51 66 90 98 96 99 100 99 97 98 97 96 89 57 45 38 32 26 21 19 17 15 14 13 12 11 10 10 10 9 9 9 9 9 9 10
10 10 8 6 8 9 8 12 14 27 29 38 52 68 86 90 98 96 100 99 100 97 98 92 82 64 48 40 28 23 20 18 16 14 13 12 11 11 11 10 9 8 9 9 10 10 11 11 10
9 11 8 7 8 9 9 8 11 18 22 25 40 60 81 92 100 99 99 96 94 97 96 89 72 55 42 34 26 29 24 16 14 13 12 11 11 10 11 15 18 13 13 12 11 16 17 15 16
12 10 9 9 8 9 9 9 8 11 17 19 26 45 72 86 95 98 98 94 83 84 85 78 62 44 36 26 42 38 21 15 14 12 12 12 13 10 11 14 18 17 12 11 16 15 15 20 26
12 10 10 9 10 10 10 9 9 10 15 19 30 49 65 73 84 92 94 82 73 73 78 73 47 35 27 29 40 25 16 15 13 12 12 12 10 12 14 17 22 13 9 12 14 12 11 13 24
14 12 11 11 10 10 10 10 10 10 12 21 31 39 58 65 74 86 84 63 66 67 72 60 42 30 25 39 19 16 16 14 13 13 13 11 12 14 15 15 11 8 8 14 14 9 12 26 42
17 17 14 12 11 10 10 12 11 10 13 23 31 41 53 60 69 76 73 61 62 63 66 61 47 33 34 22 19 18 16 15 14 13 13 10 13 14 15 11 8 6 7 10 8 12 36 52 58
22 22 24 12 10 10 11 15 9 10 13 24 26 37 50 59 65 68 62 58 59 58 64 63 51 37 29 24 21 18 16 15 15 15 11 11 15 17 12 7 6 4 5 6 14 34 40 57 65
23 27 22 14 10 11 11 14 10 9 11 19 22 31 44 53 61 63 60 56 53 53 61 60 45 37 27 20 19 18 17 17 17 14 11 15 18 16 8 5 4 4 6 14 26 32 40 42 50
25 21 18 18 14 10 12 12 10 10 13 18 18 26 37 45 52 54 58 52 49 50 59 58 47 29 23 20 20 19 18 18 17 13 15 18 19 12 5 6 5 5 13 26 25 21 42 74 78
24 20 18 14 13 14 14 14 11 10 12 16 17 19 29 40 45 51 53 48 46 51 58 61 48 27 22 22 23 22 24 19 16 16 17 19 17 8 5 5 5 6 18 30 27 27 55 71 74
24 26 25 20 18 20 20 20 16 12 10 13 15 16 21 33 41 48 52 48 48 54 58 59 53 27 28 41 49 49 35 27 21 19 17 17 13 6 5 5 5 8 26 53 38 47 32 74 90
28 28 28 28 24 23 25 27 24 18 14 12 14 16 17 26 36 44 50 51 52 56 59 59 60 34 45 54 42 30 26 22 23 22 18 12 9 6 5 5 5 8 30 43 47 47 40 72 76
35 25 28 30 34 40 24 36 24 18 17 16 14 15 17 22 32 40 48 53 56 57 60 58 61 55 57 36 38 26 38 41 45 41 18 10 7 6 5 5 6 9 24 25 36 24 35 49 80
37 28 38 47 47 52 40 43 32 21 20 17 15 16 16 18 29 38 46 52 58 58 61 60 61 60 48 36 48 38 41 40 32 22 11 10 8 6 5 5 6 10 34 19 19 16 54 79 64
33 43 47 60 53 81 47 40 41 27 18 16 15 16 17 18 30 37 43 51 56 56 62 63 63 58 51 34 36 44 47 40 38 32 33 35 21 14 8 6 8 19 10 12 14 22 77 87 55
40 55 97 96 93 75 31 33 32 18 15 16 16 16 18 20 30 36 43 51 55 55 64 67 60 59 41 28 28 29 30 27 41 31 42 34 50 49 12 6 9 11 6 7 11 54 64 89 45
45 50 82 75 60 44 26 34 24 16 16 16 15 15 17 21 35 39 44 51 54 56 66 68 60 59 40 31 31 33 29 31 27 28 31 36 41 20 6 6 6 6 6 6 10 69 51 80 91
53 70 47 66 51 72 48 27 18 18 18 17 16 21 19 23 33 42 44 51 54 58 67 68 61 59 42 34 32 32 32 32 29 26 20 20 11 8 6 5 6 6 6 6 10 46 15 51 90
44 36 86 96 98 94 43 33 31 32 25 21 22 22 24 26 32 42 44 54 57 63 70 72 65 56 40 36 34 35 34 33 32 27 24 15 8 6 6 6 5 6 6 6 7 15 9 26 75
50 63 72 84 95 79 63 48 34 41 34 28 23 23 28 28 35 42 46 55 59 66 74 77 69 67 45 36 39 38 38 36 30 28 22 13 7 6 6 6 6 6 6 6 6 6 8 12 28
42 72 94 100 100 81 65 65 33 37 33 30 26 27 31 34 39 44 49 57 62 69 78 81 72 48 39 38 39 38 41 38 33 29 22 16 6 7 7 6 6 6 6 6 6 6 7 8 10

GFSSGP_850_rhum_171.txt.gz
RH
11 16 18 24 31 34 31 21 14 12 16 23 26 33 81 83 79 80 100 83 82 73 57 42 42 40 40 45 47 47 49 50 51 52 52 53 55 56 57 60 66 69 71 68 68 66 63 61 61
12 15 18 19 32 36 31 16 19 27 21 21 36 61 65 89 92 100 99 93 86 73 52 48 47 42 44 46 47 48 52 54 56 56 58 59 61 65 68 70 73 76 77 77 76 77 77 75 73
14 16 19 26 31 31 25 12 15 26 20 21 37 58 71 90 98 97 99 97 86 77 48 48 46 42 43 44 49 53 56 59 61 61 63 62 65 65 64 64 60 61 66 70 71 72 74 74 75
20 18 16 22 24 18 16 11 9 19 22 21 38 78 79 80 90 88 99 92 80 70 48 60 50 48 50 54 57 58 60 64 66 65 58 48 42 45 49 48 45 41 44 47 48 48 48 54 58
17 20 22 23 22 15 11 9 8 10 19 20 37 78 91 93 82 92 92 92 87 74 68 69 59 59 60 62 65 67 68 71 62 50 41 34 31 35 36 32 26 25 23 24 24 24 24 23 22
16 13 22 23 18 13 10 7 9 10 13 22 54 80 91 95 86 92 94 93 92 80 68 72 66 66 67 71 74 73 70 54 46 39 31 28 25 24 22 19 16 15 14 14 14 13 13 13 13
17 22 23 20 15 13 10 7 11 10 11 17 38 77 99 95 93 99 96 92 93 78 67 73 71 72 77 78 79 72 53 44 36 30 24 20 18 17 15 14 13 12 11 9 8 8 7 7 7
16 19 21 18 16 13 8 9 10 10 11 16 37 89 92 92 100 100 100 97 86 79 92 68 75 81 82 82 74 60 46 36 29 25 20 16 14 14 13 12 9 7 7 6 6 6 6 7 8
18 22 22 19 16 13 8 10 9 9 10 28 57 62 57 91 100 95 100 98 88 89 84 84 88 87 87 81 65 50 40 31 25 20 16 14 13 12 10 8 7 6 6 6 6 6 7 8 8
22 26 19 13 12 11 10 9 8 10 11 65 77 61 70 85 92 93 95 98 92 91 98 99 96 89 84 69 53 42 33 26 20 17 15 13 12 10 8 7 7 6 7 7 7 8 8 8 7
22 26 18 15 10 10 11 10 8 9 11 20 75 77 77 80 88 87 95 97 96 96 98 98 96 89 79 60 46 36 27 21 18 16 14 12 10 9 7 7 8 8 8 8 8 9 8 6 7
26 20 17 14 12 11 12 10 10 9 10 8 20 42 67 79 83 84 86 99 98 98 98 96 95 90 62 48 38 30 24 19 16 14 13 11 10 9 9 9 9 9 8 8 8 6 6 6 7
27 24 21 20 18 15 13 12 11 9 8 8 19 60 71 84 82 79 77 92 99 98 99 97 97 88 57 50 39 32 24 19 15 14 12 10 10 10 11 11 10 9 8 7 6 6 6 8 7
25 24 22 21 20 18 16 14 12 11 10 9 16 46 63 63 62 78 84 81 96 96 97 89 97 85 61 52 57 47 31 20 16 13 11 11 9 10 12 12 10 8 7 6 6 6 6 5 4
26 34 28 25 22 22 17 18 15 11 10 9 9 38 64 68 74 62 65 84 90 97 98 89 95 75 62 52 50 44 30 21 15 13 12 10 11 12 12 11 8 7 7 6 6 6 5 4 3
43 37 42 27 24 20 19 25 16 12 11 10 9 24 60 68 56 64 70 82 89 100 97 92 92 72 64 53 47 44 29 19 15 14 12 11 12 13 12 10 7 6 6 6 5 5 4 4 3
54 60 43 34 23 21 21 22 17 14 11 11 10 14 57 68 71 64 70 72 88 90 88 84 86 78 66 54 50 36 21 17 16 15 12 13 14 13 12 9 7 6 6 5 5 5 4 4 3
64 52 44 38 26 22 23 22 17 14 11 12 11 10 54 67 65 64 66 72 87 83 79 76 77 73 63 56 43 30 25 20 17 16 13 14 15 14 11 9 7 6 6 5 5 4 4 4 4
47 44 43 34 28 30 30 28 22 16 14 14 13 11 12 61 62 63 66 76 83 75 72 70 71 70 64 58 41 34 25 22 20 17 14 16 16 13 11 10 8 8 6 5 5 5 5 4 4
46 48 46 36 30 30 30 29 23 21 20 14 12 11 15 34 59 65 67 74 74 66 65 66 67 68 68 53 44 31 24 23 22 16 15 16 15 13 12 11 10 8 6 5 5 5 5 5 5
47 48 46 45 35 31 31 33 28 23 21 19 15 11 11 18 50 62 66 68 68 62 61 62 62 64 64 58 43 35 34 30 25 19 17 16 14 13 12 11 9 7 6 5 5 5 5 7 7
54 38 39 41 46 60 43 63 43 36 34 29 23 19 12 15 34 53 64 68 63 59 59 60 58 58 56 54 44 41 31 23 22 18 18 14 13 12 12 11 9 7 6 6 6 6 6 8 7
42 33 36 40 71 85 63 79 54 38 42 34 29 23 20 18 22 56 60 64 61 58 58 58 56 56 50 45 52 50 37 30 22 24 22 15 13 12 12 11 9 7 6 6 6 7 7 8 10
34 36 50 57 81 96 70 69 63 45 39 34 30 24 22 21 20 39 61 61 59 58 57 56 55 55 52 54 58 53 43 30 28 27 20 17 16 15 14 12 10 7 6 6 7 8 8 8 12
41 50 94 97 98 80 47 68 60 35 39 36 32 26 24 20 21 45 64 59 59 57 54 54 55 57 50 61 56 52 38 35 33 23 19 20 20 20 17 12 10 7 6 7 7 11 10 10 11
48 50 78 78 74 59 41 56 43 33 30 29 26 24 24 20 21 40 59 57 57 56 55 56 58 56 53 59 54 44 52 43 37 23 23 24 24 24 16 11 8 7 7 8 8 11 10 10 11
49 62 45 71 61 78 53 44 34 31 42 44 30 25 28 27 23 44 59 56 60 59 57 56 58 58 56 56 50 54 49 40 27 25 26 26 26 23 15 10 8 7 7 8 8 10 8 12 12
46 42 68 69 94 93 81 60 56 74 69 58 46 41 32 42 46 55 58 58 63 65 62 59 58 60 60 55 55 55 48 34 30 29 29 30 30 21 15 11 8 7 7 8 8 9 9 12 12
57 70 78 87 95 96 91 81 73 87 82 84 71 44 37 43 50 54 58 59 57 59 62 62 61 62 61 56 56 54 48 37 34 32 34 36 30 24 17 10 7 7 8 8 8 9 9 11 11
71 86 94 100 100 100 98 96 80 74 72 75 74 70 59 45 50 54 58 64 67 68 65 63 62 62 60 57 56 53 41 38 34 37 45 40 32 31 16 9 8 7 8 8 8 9 10 10 10

GFSSGP_850_rhum_177.txt.gz
RH
16 18 18 21 28 42 41 30 22 21 26 57 46 49 48 69 53 61 78 64 51 44 46 47 44 32 30 30 30 32 34 35 37 39 41 44 46 48 51 54 57 61 62 65 65 64 66 66 69
20 21 19 22 38 41 34 29 22 19 21 52 55 57 60 63 79 81 81 73 60 46 44 46 45 36 35 36 35 36 39 41 43 44 46 48 52 54 56 59 63 63 63 60 60 64 64 65 66
21 21 17 33 46 39 30 22 20 14 12 33 61 72 67 78 82 66 73 74 76 54 44 45 46 38 39 41 38 40 43 45 47 50 51 54 55 56 54 51 49 47 47 46 46 45 42 40 44
22 22 20 28 31 30 26 19 16 15 10 16 49 76 79 80 83 81 81 77 73 58 51 50 49 42 42 44 42 42 45 48 51 53 54 56 52 45 35 38 38 36 34 32 26 22 22 21 22
23 22 25 26 29 25 20 15 13 14 12 16 54 84 86 76 84 83 87 84 76 68 59 54 52 47 45 49 46 46 50 52 54 57 56 44 35 28 27 28 26 24 22 19 16 15 14 14 13
24 19 28 27 23 18 18 14 13 12 12 41 63 89 90 93 87 90 96 90 85 77 69 61 55 50 48 51 47 50 54 58 60 57 42 31 24 22 22 19 17 16 14 13 12 11 9 7 6
28 34 35 28 26 24 17 13 13 14 12 43 61 89 88 94 91 88 96 94 90 84 75 66 57 55 50 44 47 55 61 64 62 44 31 25 21 18 18 16 13 12 12 9 6 6 6 5 5
24 31 30 29 26 25 15 13 12 11 12 50 55 78 89 92 94 95 99 99 95 92 83 69 56 64 66 53 57 65 69 68 54 36 29 20 17 16 14 12 12 10 6 6 5 6 6 7 7
24 35 40 31 24 22 16 17 15 14 11 25 43 54 54 62 100 100 99 97 96 93 86 70 94 95 78 63 69 76 77 67 46 33 25 19 16 14 12 12 10 6 5 6 6 6 7 7 7
29 41 36 26 19 22 20 20 17 13 12 15 37 47 59 67 94 99 97 94 93 94 89 78 91 98 82 73 76 74 74 58 41 30 22 18 14 13 12 11 6 5 6 6 7 7 7 6 6
28 38 31 26 23 23 22 22 20 15 16 12 14 27 54 69 88 94 96 95 93 94 98 96 89 87 72 77 87 84 72 55 38 27 21 16 14 12 12 7 6 6 7 7 7 7 6 6 5
36 29 28 29 26 25 28 24 22 18 16 16 14 21 36 79 67 72 84 88 91 92 99 94 90 81 78 86 94 86 70 52 36 26 20 16 13 12 9 6 7 7 7 7 7 6 6 5 4
48 38 33 32 32 30 27 28 27 22 20 18 17 24 32 44 57 76 81 92 91 89 94 96 91 87 85 93 94 83 67 49 35 26 18 15 13 12 8 7 8 7 7 7 6 6 5 5 4
38 50 46 43 38 35 34 30 25 21 18 18 18 28 41 41 37 86 100 98 94 83 88 93 93 86 94 93 94 81 61 46 33 26 18 15 13 11 7 8 8 8 7 7 6 6 5 5 4
49 64 54 49 43 37 29 33 30 22 20 20 18 21 36 40 55 41 29 46 77 77 87 90 92 92 100 98 92 74 57 42 38 24 19 15 14 10 8 8 9 8 7 7 6 6 5 4 4
67 67 76 40 34 28 28 37 27 21 20 19 17 18 27 39 37 32 42 57 78 93 82 90 95 95 100 96 83 63 49 42 36 23 18 16 14 11 10 10 9 8 7 7 6 6 5 4 4
77 86 80 63 40 38 34 39 26 22 23 23 22 20 19 21 42 43 47 61 60 67 82 86 96 96 100 92 68 50 45 46 30 23 17 16 13 11 10 11 9 8 7 7 7 6 5 4 4
81 92 84 70 42 34 42 40 33 30 28 28 25 23 22 22 24 22 39 50 67 79 87 90 94 97 100 86 59 54 53 48 45 33 20 16 13 11 12 11 9 8 8 8 7 6 5 4 4
65 75 78 56 43 47 51 50 43 36 35 33 29 26 24 22 21 30 55 72 89 95 88 89 95 96 98 89 69 60 58 58 53 38 22 16 13 12 13 12 10 9 9 8 7 5 5 4 4
73 82 81 65 55 57 60 57 44 40 37 34 30 27 26 24 21 31 52 68 76 84 85 90 94 98 99 94 80 71 65 63 56 40 24 17 15 14 13 12 10 10 10 8 7 6 5 4 4
76 83 79 75 60 57 61 63 50 37 35 31 31 29 26 24 20 24 46 56 72 80 77 76 80 100 100 95 80 73 67 66 59 41 28 19 18 17 14 12 11 11 10 8 7 6 5 5 5
85 59 66 72 78 88 56 75 47 37 35 33 33 30 28 26 26 24 33 64 79 64 72 74 77 93 100 97 86 79 70 66 59 43 30 20 17 19 15 12 12 11 10 8 7 6 6 6 5
70 57 59 64 70 67 60 72 52 38 36 32 39 32 30 29 28 29 28 35 44 76 73 78 86 95 100 100 91 80 72 68 59 42 31 24 20 20 15 13 12 11 10 8 7 7 6 6 6
50 56 56 59 68 87 59 61 54 40 34 36 36 34 32 31 29 30 34 38 61 89 95 97 96 98 100 99 94 83 76 70 57 40 33 23 20 17 14 14 12 12 10 9 8 8 8 7 7
54 67 89 87 82 77 44 50 50 33 30 31 38 41 33 33 31 28 33 59 85 95 95 98 97 99 100 99 91 83 76 71 54 35 30 22 19 16 13 15 13 12 10 9 9 10 8 8 8
60 61 82 82 73 54 40 58 44 33 30 33 48 51 46 40 35 30 33 41 78 84 85 93 97 100 100 98 92 84 83 67 51 34 28 22 18 15 13 17 15 12 11 10 10 11 9 9 8
61 68 49 73 66 75 53 48 40 37 56 65 68 54 57 57 55 47 41 40 62 81 84 90 98 100 100 96 89 86 84 74 49 37 30 22 18 16 15 16 15 12 10 10 12 11 10 9 9
64 53 80 79 95 90 62 53 47 71 86 79 79 77 71 66 61 55 44 46 84 90 93 98 100 100 100 95 88 90 85 77 52 36 31 27 22 24 24 17 14 12 11 12 14 12 9 9 9
82 78 84 90 96 88 72 64 94 91 83 89 84 76 75 70 64 67 74 83 86 88 92 97 98 100 99 92 90 91 83 84 55 47 34 29 29 31 26 17 14 12 17 16 13 10 9 10 9
84 100 100 97 95 97 99 99 98 90 76 75 87 86 72 75 72 64 69 73 79 84 90 92 95 96 91 89 90 88 84 79 73 69 38 30 35 34 27 17 15 16 17 13 10 10 10 10 9